Time,TemperatureF,DewpointF,PressureIn,WindDirection,WindDirectionDegrees,WindSpeedMPH,WindSpeedGustMPH,Humidity,HourlyPrecipIn,Conditions,Clouds,dailyrainin,SoftwareType,DateUTC
2013-02-03 00:00:00,19.9,5.2,30.09,NW,315,2.0,10.0,52,0.00,,,0.00,meteohub,2013-02-03 05:00:00,
2013-02-03 00:01:00,19.9,5.2,30.09,NW,315,2.0,10.0,52,0.00,,,0.00,meteohub,2013-02-03 05:01:00,
2013-02-03 00:05:00,19.9,5.2,30.10,WSW,248,3.0,8.0,52,0.00,,,0.00,meteohub,2013-02-03 05:05:00,
2013-02-03 00:06:00,19.9,5.2,30.09,West,270,6.0,8.0,52,0.00,,,0.00,meteohub,2013-02-03 05:06:00,
2013-02-03 00:07:00,19.9,5.2,30.09,West,270,4.0,8.0,52,0.00,,,0.00,meteohub,2013-02-03 05:07:00,
2013-02-03 00:11:00,19.9,5.2,30.09,West,270,5.0,8.0,52,0.00,,,0.00,meteohub,2013-02-03 05:11:00,
2013-02-03 00:12:00,19.8,5.0,30.09,West,270,3.0,8.0,52,0.00,,,0.00,meteohub,2013-02-03 05:12:00,
2013-02-03 00:13:00,19.8,5.0,30.09,West,270,4.0,8.0,52,0.00,,,0.00,meteohub,2013-02-03 05:13:00,
2013-02-03 00:16:00,19.8,5.0,30.09,West,270,8.0,8.0,52,0.00,,,0.00,meteohub,2013-02-03 05:16:00,
2013-02-03 00:17:00,19.8,5.0,30.09,WSW,248,2.0,6.0,52,0.00,,,0.00,meteohub,2013-02-03 05:17:00,
2013-02-03 00:18:00,19.8,5.0,30.09,South,180,5.0,6.0,52,0.00,,,0.00,meteohub,2013-02-03 05:18:00,
2013-02-03 00:21:00,19.8,5.0,30.09,WSW,248,2.0,8.0,52,0.00,,,0.00,meteohub,2013-02-03 05:21:00,
2013-02-03 00:22:00,19.8,5.0,30.09,West,270,8.0,8.0,52,0.00,,,0.00,meteohub,2013-02-03 05:22:00,
2013-02-03 00:24:00,19.8,5.0,30.09,West,270,3.0,8.0,52,0.00,,,0.00,meteohub,2013-02-03 05:24:00,
2013-02-03 00:26:00,19.8,5.0,30.09,WSW,248,4.0,10.0,52,0.00,,,0.00,meteohub,2013-02-03 05:26:00,
2013-02-03 00:28:00,19.8,5.0,30.09,West,270,3.0,10.0,52,0.00,,,0.00,meteohub,2013-02-03 05:28:00,
2013-02-03 00:29:00,19.8,5.0,30.09,SE,135,2.0,10.0,52,0.00,,,0.00,meteohub,2013-02-03 05:29:00,
2013-02-03 00:31:00,19.8,5.0,30.09,West,270,3.0,10.0,52,0.00,,,0.00,meteohub,2013-02-03 05:31:00,
2013-02-03 00:32:00,19.8,5.0,30.08,West,270,3.0,10.0,52,0.00,,,0.00,meteohub,2013-02-03 05:32:00,
2013-02-03 00:33:00,19.8,5.0,30.09,WSW,248,8.0,10.0,52,0.00,,,0.00,meteohub,2013-02-03 05:33:00,
2013-02-03 00:34:00,19.6,4.8,30.08,SE,135,4.0,10.0,52,0.00,,,0.00,meteohub,2013-02-03 05:34:00,
2013-02-03 00:36:00,19.6,4.8,30.08,WSW,248,2.0,8.0,52,0.00,,,0.00,meteohub,2013-02-03 05:36:00,
2013-02-03 00:37:00,19.6,4.8,30.08,West,270,2.0,8.0,52,0.00,,,0.00,meteohub,2013-02-03 05:37:00,
2013-02-03 00:38:00,19.6,4.8,30.08,West,270,2.0,8.0,52,0.00,,,0.00,meteohub,2013-02-03 05:38:00,
2013-02-03 00:39:00,19.6,4.8,30.08,NW,315,4.0,8.0,52,0.00,,,0.00,meteohub,2013-02-03 05:39:00,
2013-02-03 00:42:00,19.6,4.8,30.08,West,270,3.0,8.0,52,0.00,,,0.00,meteohub,2013-02-03 05:42:00,
2013-02-03 00:44:00,19.6,4.8,30.08,WSW,248,6.0,8.0,52,0.00,,,0.00,meteohub,2013-02-03 05:44:00,
2013-02-03 00:45:00,19.6,4.8,30.08,NW,315,7.0,8.0,52,0.00,,,0.00,meteohub,2013-02-03 05:45:00,
2013-02-03 00:48:00,19.6,4.8,30.08,West,270,2.0,8.0,52,0.00,,,0.00,meteohub,2013-02-03 05:48:00,
2013-02-03 00:49:00,19.6,4.8,30.08,West,270,4.0,8.0,52,0.00,,,0.00,meteohub,2013-02-03 05:49:00,
2013-02-03 00:50:00,19.6,4.8,30.08,West,270,4.0,8.0,52,0.00,,,0.00,meteohub,2013-02-03 05:50:00,
2013-02-03 00:53:00,19.6,4.8,30.08,North,0,2.0,8.0,52,0.00,,,0.00,meteohub,2013-02-03 05:53:00,
2013-02-03 00:54:00,19.6,4.8,30.08,West,270,5.0,8.0,52,0.00,,,0.00,meteohub,2013-02-03 05:54:00,
2013-02-03 00:56:00,19.6,4.8,30.08,West,270,4.0,8.0,52,0.00,,,0.00,meteohub,2013-02-03 05:56:00,
2013-02-03 00:58:00,19.6,4.8,30.08,North,0,5.0,8.0,52,0.00,,,0.00,meteohub,2013-02-03 05:58:00,
2013-02-03 01:00:00,19.6,4.8,30.08,West,270,2.0,8.0,52,0.00,,,0.00,meteohub,2013-02-03 06:00:00,
2013-02-03 01:02:00,19.6,4.8,30.08,West,270,2.0,7.0,52,0.00,,,0.00,meteohub,2013-02-03 06:02:00,
2013-02-03 01:03:00,19.6,4.8,30.08,West,270,2.0,7.0,52,0.00,,,0.00,meteohub,2013-02-03 06:03:00,
2013-02-03 01:04:00,19.6,4.8,30.08,West,270,2.0,7.0,52,0.00,,,0.00,meteohub,2013-02-03 06:04:00,
2013-02-03 01:05:00,19.6,4.8,30.08,West,270,4.0,6.0,52,0.00,,,0.00,meteohub,2013-02-03 06:05:00,
2013-02-03 01:07:00,19.6,4.8,30.08,West,270,3.0,6.0,52,0.00,,,0.00,meteohub,2013-02-03 06:07:00,
2013-02-03 01:08:00,19.6,4.8,30.07,WSW,248,4.0,6.0,52,0.00,,,0.00,meteohub,2013-02-03 06:08:00,
2013-02-03 01:09:00,19.6,4.8,30.08,West,270,3.0,6.0,52,0.00,,,0.00,meteohub,2013-02-03 06:09:00,
2013-02-03 01:11:00,19.6,4.8,30.08,West,270,4.0,5.0,52,0.00,,,0.00,meteohub,2013-02-03 06:11:00,
2013-02-03 01:12:00,19.6,4.8,30.08,West,270,2.0,5.0,52,0.00,,,0.00,meteohub,2013-02-03 06:12:00,
2013-02-03 01:14:00,19.6,4.8,30.08,North,0,2.0,5.0,52,0.00,,,0.00,meteohub,2013-02-03 06:14:00,
2013-02-03 01:15:00,19.6,4.8,30.08,NW,315,3.0,5.0,52,0.00,,,0.00,meteohub,2013-02-03 06:15:00,
2013-02-03 01:18:00,19.6,4.8,30.07,South,180,2.0,5.0,52,0.00,,,0.00,meteohub,2013-02-03 06:18:00,
2013-02-03 01:19:00,19.6,4.8,30.07,West,270,2.0,5.0,52,0.00,,,0.00,meteohub,2013-02-03 06:19:00,
2013-02-03 01:21:00,19.6,4.8,30.07,West,270,2.0,5.0,52,0.00,,,0.00,meteohub,2013-02-03 06:21:00,
2013-02-03 01:24:00,19.6,4.8,30.07,WSW,248,2.0,5.0,52,0.00,,,0.00,meteohub,2013-02-03 06:24:00,
2013-02-03 01:26:00,19.6,4.8,30.07,WSW,248,3.0,5.0,52,0.00,,,0.00,meteohub,2013-02-03 06:26:00,
2013-02-03 01:29:00,19.6,4.8,30.07,NW,315,2.0,5.0,52,0.00,,,0.00,meteohub,2013-02-03 06:29:00,
2013-02-03 01:30:00,19.6,4.8,30.07,WSW,248,1.0,5.0,52,0.00,,,0.00,meteohub,2013-02-03 06:30:00,
2013-02-03 01:32:00,19.6,4.8,30.07,WSW,248,1.0,5.0,52,0.00,,,0.00,meteohub,2013-02-03 06:32:00,
2013-02-03 01:34:00,19.6,4.8,30.07,WSW,248,2.0,5.0,52,0.00,,,0.00,meteohub,2013-02-03 06:34:00,
2013-02-03 01:35:00,19.6,4.8,30.07,WSW,248,3.0,5.0,52,0.00,,,0.00,meteohub,2013-02-03 06:35:00,
2013-02-03 01:37:00,19.6,4.8,30.07,WSW,248,2.0,5.0,52,0.00,,,0.00,meteohub,2013-02-03 06:37:00,
2013-02-03 01:40:00,19.6,4.8,30.07,South,180,5.0,5.0,52,0.00,,,0.00,meteohub,2013-02-03 06:40:00,
2013-02-03 01:42:00,19.6,4.8,30.07,WSW,248,2.0,4.0,52,0.00,,,0.00,meteohub,2013-02-03 06:42:00,
2013-02-03 01:45:00,19.6,4.8,30.06,West,270,3.0,5.0,52,0.00,,,0.00,meteohub,2013-02-03 06:45:00,
2013-02-03 01:47:00,19.6,4.8,30.07,WSW,248,3.0,5.0,52,0.00,,,0.00,meteohub,2013-02-03 06:47:00,
2013-02-03 01:50:00,19.6,4.8,30.07,WSW,248,1.0,5.0,52,0.00,,,0.00,meteohub,2013-02-03 06:50:00,
2013-02-03 01:52:00,19.6,4.8,30.07,West,270,3.0,5.0,52,0.00,,,0.00,meteohub,2013-02-03 06:52:00,
2013-02-03 01:53:00,19.6,4.8,30.07,NW,315,3.0,5.0,52,0.00,,,0.00,meteohub,2013-02-03 06:53:00,
2013-02-03 01:56:00,19.8,5.0,30.06,West,270,2.0,5.0,52,0.00,,,0.00,meteohub,2013-02-03 06:56:00,
2013-02-03 01:57:00,19.8,5.0,30.06,WSW,248,3.0,5.0,52,0.00,,,0.00,meteohub,2013-02-03 06:57:00,
2013-02-03 01:59:00,19.8,5.0,30.06,WSW,248,4.0,5.0,52,0.00,,,0.00,meteohub,2013-02-03 06:59:00,
2013-02-03 02:02:00,19.8,5.0,30.06,West,270,2.0,4.0,52,0.00,,,0.00,meteohub,2013-02-03 07:02:00,
2013-02-03 02:04:00,19.8,5.0,30.07,WSW,248,1.0,4.0,52,0.00,,,0.00,meteohub,2013-02-03 07:04:00,
2013-02-03 02:05:00,19.8,5.0,30.06,East,90,2.0,4.0,52,0.00,,,0.00,meteohub,2013-02-03 07:05:00,
2013-02-03 02:07:00,19.8,5.0,30.06,WSW,248,1.0,5.0,52,0.00,,,0.00,meteohub,2013-02-03 07:07:00,
2013-02-03 02:09:00,19.8,5.0,30.06,WSW,248,2.0,5.0,52,0.00,,,0.00,meteohub,2013-02-03 07:09:00,
2013-02-03 02:11:00,19.8,5.0,30.07,West,270,4.0,5.0,52,0.00,,,0.00,meteohub,2013-02-03 07:11:00,
2013-02-03 02:12:00,19.8,5.0,30.06,West,270,4.0,5.0,52,0.00,,,0.00,meteohub,2013-02-03 07:12:00,
2013-02-03 02:14:00,19.8,5.0,30.06,WSW,248,2.0,5.0,52,0.00,,,0.00,meteohub,2013-02-03 07:14:00,
2013-02-03 02:15:00,19.8,5.0,30.06,WSW,248,2.0,5.0,52,0.00,,,0.00,meteohub,2013-02-03 07:15:00,
2013-02-03 02:16:00,19.8,5.0,30.06,NW,315,2.0,6.0,52,0.00,,,0.00,meteohub,2013-02-03 07:16:00,
2013-02-03 02:17:00,19.8,5.0,30.06,NW,315,2.0,6.0,52,0.00,,,0.00,meteohub,2013-02-03 07:17:00,
2013-02-03 02:20:00,19.8,5.0,30.06,NW,315,1.0,6.0,52,0.00,,,0.00,meteohub,2013-02-03 07:20:00,
2013-02-03 02:21:00,19.8,5.0,30.06,West,270,2.0,6.0,52,0.00,,,0.00,meteohub,2013-02-03 07:21:00,
2013-02-03 02:23:00,19.8,5.0,30.06,WSW,248,2.0,6.0,52,0.00,,,0.00,meteohub,2013-02-03 07:23:00,
2013-02-03 02:25:00,19.8,5.0,30.06,West,270,2.0,4.0,52,0.00,,,0.00,meteohub,2013-02-03 07:25:00,
2013-02-03 02:26:00,19.8,5.0,30.06,NW,315,2.0,4.0,52,0.00,,,0.00,meteohub,2013-02-03 07:26:00,
2013-02-03 02:28:00,19.8,5.0,30.06,West,270,2.0,4.0,52,0.00,,,0.00,meteohub,2013-02-03 07:28:00,
2013-02-03 02:30:00,19.8,5.0,30.06,WSW,248,2.0,4.0,52,0.00,,,0.00,meteohub,2013-02-03 07:30:00,
2013-02-03 02:31:00,19.8,5.0,30.06,WSW,248,2.0,4.0,52,0.00,,,0.00,meteohub,2013-02-03 07:31:00,
2013-02-03 02:32:00,19.8,5.0,30.06,WSW,248,2.0,4.0,52,0.00,,,0.00,meteohub,2013-02-03 07:32:00,
2013-02-03 02:34:00,19.8,5.0,30.06,WSW,248,3.0,4.0,52,0.00,,,0.00,meteohub,2013-02-03 07:34:00,
2013-02-03 02:36:00,19.8,5.0,30.06,WSW,248,4.0,4.0,52,0.00,,,0.00,meteohub,2013-02-03 07:36:00,
2013-02-03 02:37:00,19.8,5.0,30.06,WSW,248,4.0,4.0,52,0.00,,,0.00,meteohub,2013-02-03 07:37:00,
2013-02-03 02:41:00,19.8,5.0,30.05,West,270,2.0,4.0,52,0.00,,,0.00,meteohub,2013-02-03 07:41:00,
2013-02-03 02:42:00,19.8,5.0,30.06,WSW,248,1.0,4.0,52,0.00,,,0.00,meteohub,2013-02-03 07:42:00,
2013-02-03 02:47:00,19.8,5.0,30.05,NW,315,4.0,4.0,52,0.00,,,0.00,meteohub,2013-02-03 07:47:00,
2013-02-03 02:48:00,19.8,5.0,30.05,WSW,248,3.0,4.0,52,0.00,,,0.00,meteohub,2013-02-03 07:48:00,
2013-02-03 02:52:00,19.8,5.0,30.05,West,270,2.0,5.0,52,0.00,,,0.00,meteohub,2013-02-03 07:52:00,
2013-02-03 02:53:00,19.8,5.0,30.05,WSW,248,1.0,5.0,52,0.00,,,0.00,meteohub,2013-02-03 07:53:00,
2013-02-03 02:55:00,19.8,5.0,30.05,West,270,4.0,5.0,52,0.00,,,0.00,meteohub,2013-02-03 07:55:00,
2013-02-03 02:57:00,19.8,5.0,30.05,West,270,5.0,5.0,52,0.00,,,0.00,meteohub,2013-02-03 07:57:00,
2013-02-03 02:59:00,19.6,4.8,30.05,WSW,248,4.0,5.0,52,0.00,,,0.00,meteohub,2013-02-03 07:59:00,
2013-02-03 03:02:00,19.6,4.8,30.05,West,270,2.0,5.0,52,0.00,,,0.00,meteohub,2013-02-03 08:02:00,
2013-02-03 03:03:00,19.6,4.8,30.05,West,270,1.0,5.0,52,0.00,,,0.00,meteohub,2013-02-03 08:03:00,
2013-02-03 03:05:00,19.6,4.8,30.05,West,270,2.0,5.0,52,0.00,,,0.00,meteohub,2013-02-03 08:05:00,
2013-02-03 03:07:00,19.6,4.8,30.04,West,270,2.0,5.0,52,0.00,,,0.00,meteohub,2013-02-03 08:07:00,
2013-02-03 03:08:00,19.6,4.8,30.04,West,270,2.0,5.0,52,0.00,,,0.00,meteohub,2013-02-03 08:08:00,
2013-02-03 03:11:00,19.6,4.8,30.05,WSW,248,4.0,5.0,52,0.00,,,0.00,meteohub,2013-02-03 08:11:00,
2013-02-03 03:12:00,19.6,4.8,30.05,WSW,248,4.0,5.0,52,0.00,,,0.00,meteohub,2013-02-03 08:12:00,
2013-02-03 03:13:00,19.6,4.8,30.05,West,270,2.0,5.0,52,0.00,,,0.00,meteohub,2013-02-03 08:13:00,
2013-02-03 03:14:00,19.6,4.8,30.05,West,270,2.0,5.0,52,0.00,,,0.00,meteohub,2013-02-03 08:14:00,
2013-02-03 03:16:00,19.6,4.8,30.05,West,270,2.0,5.0,52,0.00,,,0.00,meteohub,2013-02-03 08:16:00,
2013-02-03 03:18:00,19.6,4.8,30.05,WSW,248,2.0,5.0,52,0.00,,,0.00,meteohub,2013-02-03 08:18:00,
2013-02-03 03:20:00,19.6,4.8,30.04,West,270,3.0,5.0,52,0.00,,,0.00,meteohub,2013-02-03 08:20:00,
2013-02-03 03:21:00,19.6,4.8,30.05,WSW,248,3.0,5.0,52,0.00,,,0.00,meteohub,2013-02-03 08:21:00,
2013-02-03 03:24:00,19.6,4.8,30.04,NW,315,2.0,5.0,52,0.00,,,0.00,meteohub,2013-02-03 08:24:00,
2013-02-03 03:25:00,19.6,4.8,30.04,WSW,248,2.0,4.0,52,0.00,,,0.00,meteohub,2013-02-03 08:25:00,
2013-02-03 03:26:00,19.6,4.8,30.04,NW,315,4.0,4.0,52,0.00,,,0.00,meteohub,2013-02-03 08:26:00,
2013-02-03 03:28:00,19.6,4.8,30.04,West,270,1.0,4.0,52,0.00,,,0.00,meteohub,2013-02-03 08:28:00,
2013-02-03 03:29:00,19.6,4.8,30.04,West,270,1.0,4.0,52,0.00,,,0.00,meteohub,2013-02-03 08:29:00,
2013-02-03 03:31:00,19.6,4.8,30.04,West,270,2.0,4.0,52,0.00,,,0.00,meteohub,2013-02-03 08:31:00,
2013-02-03 03:34:00,19.6,4.8,30.04,West,270,2.0,4.0,52,0.00,,,0.00,meteohub,2013-02-03 08:34:00,
2013-02-03 03:36:00,19.6,4.8,30.03,West,270,1.0,4.0,52,0.00,,,0.00,meteohub,2013-02-03 08:36:00,
2013-02-03 03:39:00,19.6,4.8,30.04,WSW,248,2.0,4.0,52,0.00,,,0.00,meteohub,2013-02-03 08:39:00,
2013-02-03 03:40:00,19.6,4.8,30.03,WSW,248,3.0,5.0,52,0.00,,,0.00,meteohub,2013-02-03 08:40:00,
2013-02-03 03:41:00,19.6,4.8,30.04,WSW,248,2.0,5.0,52,0.00,,,0.00,meteohub,2013-02-03 08:41:00,
2013-02-03 03:42:00,19.6,4.8,30.04,WSW,248,2.0,5.0,52,0.00,,,0.00,meteohub,2013-02-03 08:42:00,
2013-02-03 03:45:00,19.6,4.8,30.03,NW,315,1.0,5.0,52,0.00,,,0.00,meteohub,2013-02-03 08:45:00,
2013-02-03 03:47:00,19.6,4.8,30.03,NW,315,2.0,5.0,52,0.00,,,0.00,meteohub,2013-02-03 08:47:00,
2013-02-03 03:51:00,19.6,4.8,30.03,West,270,1.0,4.0,52,0.00,,,0.00,meteohub,2013-02-03 08:51:00,
2013-02-03 03:52:00,19.6,4.8,30.03,West,270,4.0,4.0,52,0.00,,,0.00,meteohub,2013-02-03 08:52:00,
2013-02-03 03:53:00,19.6,4.8,30.02,West,270,1.0,4.0,52,0.00,,,0.00,meteohub,2013-02-03 08:53:00,
2013-02-03 03:56:00,19.6,4.8,30.03,WSW,248,2.0,4.0,52,0.00,,,0.00,meteohub,2013-02-03 08:56:00,
2013-02-03 03:57:00,19.6,4.8,30.03,WSW,248,2.0,4.0,52,0.00,,,0.00,meteohub,2013-02-03 08:57:00,
2013-02-03 03:58:00,19.6,4.8,30.02,West,270,3.0,4.0,52,0.00,,,0.00,meteohub,2013-02-03 08:58:00,
2013-02-03 04:02:00,19.6,4.8,30.02,West,270,4.0,4.0,52,0.00,,,0.00,meteohub,2013-02-03 09:02:00,
2013-02-03 04:03:00,19.6,4.8,30.02,WSW,248,1.0,4.0,52,0.00,,,0.00,meteohub,2013-02-03 09:03:00,
2013-02-03 04:07:00,19.6,4.8,30.02,WSW,248,2.0,4.0,52,0.00,,,0.00,meteohub,2013-02-03 09:07:00,
2013-02-03 04:08:00,19.6,4.8,30.02,West,270,1.0,4.0,52,0.00,,,0.00,meteohub,2013-02-03 09:08:00,
2013-02-03 04:12:00,19.6,4.8,30.02,NW,315,2.0,4.0,52,0.00,,,0.00,meteohub,2013-02-03 09:12:00,
2013-02-03 04:14:00,19.6,4.8,30.02,West,270,2.0,4.0,52,0.00,,,0.00,meteohub,2013-02-03 09:14:00,
2013-02-03 04:17:00,19.6,4.8,30.02,West,270,2.0,4.0,52,0.00,,,0.00,meteohub,2013-02-03 09:17:00,
2013-02-03 04:19:00,19.6,4.8,30.01,WSW,248,2.0,4.0,52,0.00,,,0.00,meteohub,2013-02-03 09:19:00,
2013-02-03 04:20:00,19.6,4.8,30.02,West,270,2.0,3.0,52,0.00,,,0.00,meteohub,2013-02-03 09:20:00,
2013-02-03 04:23:00,19.6,4.8,30.02,West,270,2.0,3.0,52,0.00,,,0.00,meteohub,2013-02-03 09:23:00,
2013-02-03 04:24:00,19.6,4.8,30.02,West,270,1.0,3.0,52,0.00,,,0.00,meteohub,2013-02-03 09:24:00,
2013-02-03 04:25:00,19.6,4.8,30.02,West,270,1.0,3.0,52,0.00,,,0.00,meteohub,2013-02-03 09:25:00,
2013-02-03 04:26:00,19.6,4.8,30.02,WSW,248,2.0,3.0,52,0.00,,,0.00,meteohub,2013-02-03 09:26:00,
2013-02-03 04:28:00,19.6,4.8,30.02,NW,315,2.0,3.0,52,0.00,,,0.00,meteohub,2013-02-03 09:28:00,
2013-02-03 04:29:00,19.6,4.8,30.02,East,90,2.0,3.0,52,0.00,,,0.00,meteohub,2013-02-03 09:29:00,
2013-02-03 04:30:00,19.6,4.8,30.02,East,90,2.0,3.0,52,0.00,,,0.00,meteohub,2013-02-03 09:30:00,
2013-02-03 04:31:00,19.6,4.8,30.02,East,90,2.0,3.0,52,0.00,,,0.00,meteohub,2013-02-03 09:31:00,
2013-02-03 04:35:00,19.6,4.8,30.01,West,270,1.0,3.0,52,0.00,,,0.00,meteohub,2013-02-03 09:35:00,
2013-02-03 04:36:00,19.6,4.8,30.01,NW,315,2.0,4.0,52,0.00,,,0.00,meteohub,2013-02-03 09:36:00,
2013-02-03 04:37:00,19.6,4.8,30.02,East,90,3.0,4.0,52,0.00,,,0.00,meteohub,2013-02-03 09:37:00,
2013-02-03 04:40:00,19.6,4.8,30.02,WSW,248,3.0,4.0,52,0.00,,,0.00,meteohub,2013-02-03 09:40:00,
2013-02-03 04:41:00,19.6,4.8,30.01,NW,315,3.0,4.0,52,0.00,,,0.00,meteohub,2013-02-03 09:41:00,
2013-02-03 04:44:00,19.6,4.8,30.01,West,270,2.0,4.0,52,0.00,,,0.00,meteohub,2013-02-03 09:44:00,
2013-02-03 04:45:00,19.6,4.8,30.01,West,270,1.0,4.0,52,0.00,,,0.00,meteohub,2013-02-03 09:45:00,
2013-02-03 04:46:00,19.6,4.8,30.01,North,0,1.0,4.0,52,0.00,,,0.00,meteohub,2013-02-03 09:46:00,
2013-02-03 04:47:00,19.6,4.8,30.01,NW,315,2.0,4.0,52,0.00,,,0.00,meteohub,2013-02-03 09:47:00,
2013-02-03 04:49:00,19.6,4.8,30.01,NW,315,0.0,4.0,52,0.00,,,0.00,meteohub,2013-02-03 09:49:00,
2013-02-03 04:51:00,19.6,4.8,30.01,West,270,1.0,3.0,52,0.00,,,0.00,meteohub,2013-02-03 09:51:00,
2013-02-03 04:52:00,19.6,4.8,30.01,WSW,248,1.0,3.0,52,0.00,,,0.00,meteohub,2013-02-03 09:52:00,
2013-02-03 04:54:00,19.6,4.8,30.01,SE,135,0.0,3.0,52,0.00,,,0.00,meteohub,2013-02-03 09:54:00,
2013-02-03 04:56:00,19.6,4.8,30.01,NW,315,2.0,3.0,52,0.00,,,0.00,meteohub,2013-02-03 09:56:00,
2013-02-03 04:57:00,19.4,4.6,30.01,North,0,1.0,3.0,52,0.00,,,0.00,meteohub,2013-02-03 09:57:00,
2013-02-03 04:58:00,19.4,4.6,30.01,North,0,1.0,3.0,52,0.00,,,0.00,meteohub,2013-02-03 09:58:00,
2013-02-03 04:59:00,19.4,4.6,30.01,WSW,248,1.0,3.0,52,0.00,,,0.00,meteohub,2013-02-03 09:59:00,
2013-02-03 05:02:00,19.4,4.6,30.01,West,270,1.0,3.0,52,0.00,,,0.00,meteohub,2013-02-03 10:02:00,
2013-02-03 05:03:00,19.4,4.6,30.01,West,270,1.0,3.0,52,0.00,,,0.00,meteohub,2013-02-03 10:03:00,
2013-02-03 05:06:00,19.6,4.8,30.01,WSW,248,1.0,2.0,52,0.00,,,0.00,meteohub,2013-02-03 10:06:00,
2013-02-03 05:08:00,19.4,4.6,30.01,West,270,1.0,2.0,52,0.00,,,0.00,meteohub,2013-02-03 10:08:00,
2013-02-03 05:11:00,19.6,4.8,30.01,West,270,0.0,2.0,52,0.00,,,0.00,meteohub,2013-02-03 10:11:00,
2013-02-03 05:13:00,19.6,4.8,30.01,West,270,0.0,2.0,52,0.00,,,0.00,meteohub,2013-02-03 10:13:00,
2013-02-03 05:14:00,19.6,4.8,30.01,West,270,0.0,2.0,52,0.00,,,0.00,meteohub,2013-02-03 10:14:00,
2013-02-03 05:16:00,19.6,4.8,30.01,West,270,2.0,2.0,52,0.00,,,0.00,meteohub,2013-02-03 10:16:00,
2013-02-03 05:18:00,19.6,4.8,30.01,West,270,2.0,2.0,52,0.00,,,0.00,meteohub,2013-02-03 10:18:00,
2013-02-03 05:19:00,19.6,4.8,30.01,West,270,1.0,2.0,52,0.00,,,0.00,meteohub,2013-02-03 10:19:00,
2013-02-03 05:21:00,19.6,4.8,30.01,West,270,1.0,2.0,52,0.00,,,0.00,meteohub,2013-02-03 10:21:00,
2013-02-03 05:24:00,19.6,4.8,30.01,WSW,248,1.0,2.0,52,0.00,,,0.00,meteohub,2013-02-03 10:24:00,
2013-02-03 05:25:00,19.6,4.8,30.01,WSW,248,1.0,2.0,52,0.00,,,0.00,meteohub,2013-02-03 10:25:00,
2013-02-03 05:27:00,19.6,4.8,30.01,West,270,1.0,2.0,52,0.00,,,0.00,meteohub,2013-02-03 10:27:00,
2013-02-03 05:30:00,19.6,4.8,30.01,West,270,2.0,2.0,52,0.00,,,0.00,meteohub,2013-02-03 10:30:00,
2013-02-03 05:33:00,19.6,4.8,30.01,West,270,2.0,2.0,52,0.00,,,0.00,meteohub,2013-02-03 10:33:00,
2013-02-03 05:35:00,19.6,4.8,30.01,West,270,1.0,2.0,52,0.00,,,0.00,meteohub,2013-02-03 10:35:00,
2013-02-03 05:36:00,19.6,4.8,30.01,West,270,1.0,2.0,52,0.00,,,0.00,meteohub,2013-02-03 10:36:00,
2013-02-03 05:38:00,19.6,4.8,30.01,West,270,2.0,2.0,52,0.00,,,0.00,meteohub,2013-02-03 10:38:00,
2013-02-03 05:41:00,19.6,4.8,30.00,West,270,2.0,2.0,52,0.00,,,0.00,meteohub,2013-02-03 10:41:00,
2013-02-03 05:42:00,19.6,4.8,30.00,West,270,0.0,2.0,52,0.00,,,0.00,meteohub,2013-02-03 10:42:00,
2013-02-03 05:43:00,19.6,4.8,30.01,West,270,1.0,2.0,52,0.00,,,0.00,meteohub,2013-02-03 10:43:00,
2013-02-03 05:47:00,19.6,4.8,30.01,West,270,1.0,2.0,52,0.00,,,0.00,meteohub,2013-02-03 10:47:00,
2013-02-03 05:48:00,19.6,4.8,30.00,West,270,2.0,2.0,52,0.00,,,0.00,meteohub,2013-02-03 10:48:00,
2013-02-03 05:49:00,19.6,4.8,30.00,WSW,248,1.0,2.0,52,0.00,,,0.00,meteohub,2013-02-03 10:49:00,
2013-02-03 05:52:00,19.6,4.8,30.00,NW,315,1.0,2.0,52,0.00,,,0.00,meteohub,2013-02-03 10:52:00,
2013-02-03 05:53:00,19.6,4.8,30.00,WSW,248,2.0,2.0,52,0.00,,,0.00,meteohub,2013-02-03 10:53:00,
2013-02-03 05:54:00,19.6,4.8,30.00,West,270,2.0,2.0,52,0.00,,,0.00,meteohub,2013-02-03 10:54:00,
2013-02-03 05:55:00,19.6,4.8,30.00,NW,315,1.0,2.0,52,0.00,,,0.00,meteohub,2013-02-03 10:55:00,
2013-02-03 05:58:00,19.6,4.8,30.00,West,270,2.0,2.0,52,0.00,,,0.00,meteohub,2013-02-03 10:58:00,
2013-02-03 06:00:00,19.6,4.8,30.01,West,270,1.0,2.0,52,0.00,,,0.00,meteohub,2013-02-03 11:00:00,
2013-02-03 06:03:00,19.6,4.8,30.01,NW,315,1.0,3.0,52,0.00,,,0.00,meteohub,2013-02-03 11:03:00,
2013-02-03 06:05:00,19.6,4.8,30.01,West,270,0.0,3.0,52,0.00,,,0.00,meteohub,2013-02-03 11:05:00,
2013-02-03 06:07:00,19.4,4.6,30.00,West,270,0.0,3.0,52,0.00,,,0.00,meteohub,2013-02-03 11:07:00,
2013-02-03 06:08:00,19.4,4.6,30.00,West,270,2.0,3.0,52,0.00,,,0.00,meteohub,2013-02-03 11:08:00,
2013-02-03 06:10:00,19.6,4.8,30.01,WSW,248,0.0,3.0,52,0.00,,,0.00,meteohub,2013-02-03 11:10:00,
2013-02-03 06:11:00,19.4,4.6,30.01,WSW,248,0.0,3.0,52,0.00,,,0.00,meteohub,2013-02-03 11:11:00,
2013-02-03 06:12:00,19.6,4.8,30.00,West,270,0.0,3.0,52,0.00,,,0.00,meteohub,2013-02-03 11:12:00,
2013-02-03 06:14:00,19.6,4.8,30.00,WSW,248,2.0,3.0,52,0.00,,,0.00,meteohub,2013-02-03 11:14:00,
2013-02-03 06:16:00,19.6,4.8,30.00,West,270,1.0,2.0,52,0.00,,,0.00,meteohub,2013-02-03 11:16:00,
2013-02-03 06:18:00,19.6,4.8,30.00,WSW,248,1.0,2.0,52,0.00,,,0.00,meteohub,2013-02-03 11:18:00,
2013-02-03 06:19:00,19.6,4.8,30.01,WSW,248,0.0,2.0,52,0.00,,,0.00,meteohub,2013-02-03 11:19:00,
2013-02-03 06:21:00,19.6,4.8,30.00,WSW,248,0.0,2.0,52,0.00,,,0.00,meteohub,2013-02-03 11:21:00,
2013-02-03 06:22:00,19.6,4.8,30.00,WSW,248,0.0,2.0,52,0.00,,,0.00,meteohub,2013-02-03 11:22:00,
2013-02-03 06:24:00,19.6,4.8,30.01,WSW,248,0.0,2.0,52,0.00,,,0.00,meteohub,2013-02-03 11:24:00,
2013-02-03 06:27:00,19.6,4.8,30.00,East,90,0.0,2.0,52,0.00,,,0.00,meteohub,2013-02-03 11:27:00,
2013-02-03 06:29:00,19.6,4.8,30.00,WSW,248,1.0,2.0,52,0.00,,,0.00,meteohub,2013-02-03 11:29:00,
2013-02-03 06:30:00,19.6,4.8,30.00,WSW,248,1.0,2.0,52,0.00,,,0.00,meteohub,2013-02-03 11:30:00,
2013-02-03 06:32:00,19.6,4.8,30.01,WSW,248,1.0,2.0,52,0.00,,,0.00,meteohub,2013-02-03 11:32:00,
2013-02-03 06:34:00,19.6,4.8,30.00,WSW,248,0.0,2.0,52,0.00,,,0.00,meteohub,2013-02-03 11:34:00,
2013-02-03 06:36:00,19.6,4.8,30.00,WSW,248,0.0,2.0,52,0.00,,,0.00,meteohub,2013-02-03 11:36:00,
2013-02-03 06:37:00,19.6,4.8,30.01,WSW,248,0.0,2.0,52,0.00,,,0.00,meteohub,2013-02-03 11:37:00,
2013-02-03 06:38:00,19.6,4.8,30.01,WSW,248,0.0,2.0,52,0.00,,,0.00,meteohub,2013-02-03 11:38:00,
2013-02-03 06:39:00,19.6,4.8,30.00,NW,315,1.0,2.0,52,0.00,,,0.00,meteohub,2013-02-03 11:39:00,
2013-02-03 06:42:00,19.6,4.8,30.01,West,270,1.0,2.0,52,0.00,,,0.00,meteohub,2013-02-03 11:42:00,
2013-02-03 06:43:00,19.6,4.8,30.00,West,270,1.0,2.0,52,0.00,,,0.00,meteohub,2013-02-03 11:43:00,
2013-02-03 06:44:00,19.6,4.8,30.00,West,270,0.0,2.0,52,0.00,,,0.00,meteohub,2013-02-03 11:44:00,
2013-02-03 06:45:00,19.6,4.8,30.01,West,270,1.0,2.0,52,0.00,,,0.00,meteohub,2013-02-03 11:45:00,
2013-02-03 06:47:00,19.6,4.8,30.00,West,270,0.0,1.0,52,0.00,,,0.00,meteohub,2013-02-03 11:47:00,
2013-02-03 06:49:00,19.6,4.8,30.01,West,270,0.0,1.0,52,0.00,,,0.00,meteohub,2013-02-03 11:49:00,
2013-02-03 06:50:00,19.6,4.8,30.01,West,270,0.0,2.0,52,0.00,,,0.00,meteohub,2013-02-03 11:50:00,
2013-02-03 06:53:00,19.6,4.8,30.00,WSW,248,2.0,2.0,52,0.00,,,0.00,meteohub,2013-02-03 11:53:00,
2013-02-03 06:54:00,19.6,4.8,30.00,WSW,248,2.0,2.0,52,0.00,,,0.00,meteohub,2013-02-03 11:54:00,
2013-02-03 06:55:00,19.6,4.8,30.00,WSW,248,2.0,2.0,52,0.00,,,0.00,meteohub,2013-02-03 11:55:00,
2013-02-03 06:56:00,19.6,4.8,30.00,SSW,203,4.0,4.0,52,0.00,,,0.00,meteohub,2013-02-03 11:56:00,
2013-02-03 06:58:00,19.6,4.8,30.01,West,270,3.0,3.0,52,0.00,,,0.00,meteohub,2013-02-03 11:58:00,
2013-02-03 07:00:00,19.6,4.8,30.01,WSW,248,1.0,4.0,52,0.00,,,0.00,meteohub,2013-02-03 12:00:00,
2013-02-03 07:01:00,19.6,4.8,30.01,SE,135,1.0,4.0,52,0.00,,,0.00,meteohub,2013-02-03 12:01:00,
2013-02-03 07:02:00,19.6,4.8,30.01,SE,135,1.0,4.0,52,0.00,,,0.00,meteohub,2013-02-03 12:02:00,
2013-02-03 07:04:00,19.6,4.8,30.00,WSW,248,2.0,4.0,52,0.00,,,0.00,meteohub,2013-02-03 12:04:00,
2013-02-03 07:06:00,19.6,4.8,30.00,South,180,1.0,4.0,52,0.00,,,0.00,meteohub,2013-02-03 12:06:00,
2013-02-03 07:08:00,19.6,4.8,30.00,WSW,248,1.0,4.0,52,0.00,,,0.00,meteohub,2013-02-03 12:08:00,
2013-02-03 07:09:00,19.6,4.8,30.01,WSW,248,2.0,4.0,52,0.00,,,0.00,meteohub,2013-02-03 12:09:00,
2013-02-03 07:12:00,19.6,4.8,30.01,WSW,248,2.0,4.0,52,0.00,,,0.00,meteohub,2013-02-03 12:12:00,
2013-02-03 07:13:00,19.6,4.8,30.01,WSW,248,2.0,4.0,52,0.00,,,0.00,meteohub,2013-02-03 12:13:00,
2013-02-03 07:15:00,19.4,4.6,30.01,WSW,248,2.0,3.0,52,0.00,,,0.00,meteohub,2013-02-03 12:15:00,
2013-02-03 07:18:00,19.4,4.6,30.00,WSW,248,1.0,3.0,52,0.00,,,0.00,meteohub,2013-02-03 12:18:00,
2013-02-03 07:19:00,19.4,4.6,30.00,WSW,248,1.0,3.0,52,0.00,,,0.00,meteohub,2013-02-03 12:19:00,
2013-02-03 07:20:00,19.4,4.6,30.01,WSW,248,1.0,3.0,52,0.00,,,0.00,meteohub,2013-02-03 12:20:00,
2013-02-03 07:23:00,19.4,4.6,30.01,West,270,2.0,3.0,52,0.00,,,0.00,meteohub,2013-02-03 12:23:00,
2013-02-03 07:24:00,19.4,4.6,30.01,West,270,2.0,3.0,52,0.00,,,0.00,meteohub,2013-02-03 12:24:00,
2013-02-03 07:25:00,19.4,4.6,30.00,WSW,248,2.0,2.0,52,0.00,,,0.00,meteohub,2013-02-03 12:25:00,
2013-02-03 07:26:00,19.4,4.6,30.00,WSW,248,2.0,2.0,52,0.00,,,0.00,meteohub,2013-02-03 12:26:00,
2013-02-03 07:29:00,19.4,4.6,30.01,West,270,1.0,2.0,52,0.00,,,0.00,meteohub,2013-02-03 12:29:00,
2013-02-03 07:30:00,19.4,4.6,30.00,WSW,248,1.0,3.0,52,0.00,,,0.00,meteohub,2013-02-03 12:30:00,
2013-02-03 07:32:00,19.4,4.6,30.01,WSW,248,2.0,3.0,52,0.00,,,0.00,meteohub,2013-02-03 12:32:00,
2013-02-03 07:34:00,19.4,4.6,30.01,WSW,248,0.0,3.0,52,0.00,,,0.00,meteohub,2013-02-03 12:34:00,
2013-02-03 07:36:00,19.4,4.6,30.01,WSW,248,1.0,3.0,52,0.00,,,0.00,meteohub,2013-02-03 12:36:00,
2013-02-03 07:37:00,19.4,4.6,30.01,WSW,248,1.0,3.0,52,0.00,,,0.00,meteohub,2013-02-03 12:37:00,
2013-02-03 07:39:00,19.4,4.6,30.01,South,180,1.0,3.0,52,0.00,,,0.00,meteohub,2013-02-03 12:39:00,
2013-02-03 07:40:00,19.4,4.6,30.01,South,180,1.0,3.0,52,0.00,,,0.00,meteohub,2013-02-03 12:40:00,
2013-02-03 07:41:00,19.4,4.6,30.01,South,180,1.0,3.0,52,0.00,,,0.00,meteohub,2013-02-03 12:41:00,
2013-02-03 07:42:00,19.4,4.6,30.01,South,180,0.0,3.0,52,0.00,,,0.00,meteohub,2013-02-03 12:42:00,
2013-02-03 07:45:00,19.4,4.6,30.01,South,180,1.0,2.0,52,0.00,,,0.00,meteohub,2013-02-03 12:45:00,
2013-02-03 07:46:00,19.4,4.6,30.01,West,270,1.0,2.0,52,0.00,,,0.00,meteohub,2013-02-03 12:46:00,
2013-02-03 07:48:00,19.4,4.6,30.01,WSW,248,2.0,2.0,52,0.00,,,0.00,meteohub,2013-02-03 12:48:00,
2013-02-03 07:50:00,19.4,4.6,30.01,WSW,248,2.0,2.0,52,0.00,,,0.00,meteohub,2013-02-03 12:50:00,
2013-02-03 07:52:00,19.4,4.6,30.01,WSW,248,0.0,2.0,52,0.00,,,0.00,meteohub,2013-02-03 12:52:00,
2013-02-03 07:54:00,19.4,4.6,30.01,WSW,248,1.0,2.0,52,0.00,,,0.00,meteohub,2013-02-03 12:54:00,
2013-02-03 07:56:00,19.6,4.8,30.01,South,180,1.0,2.0,52,0.00,,,0.00,meteohub,2013-02-03 12:56:00,
2013-02-03 07:57:00,19.6,4.8,30.01,WSW,248,2.0,2.0,52,0.00,,,0.00,meteohub,2013-02-03 12:57:00,
2013-02-03 07:59:00,19.6,4.8,30.01,WSW,248,1.0,2.0,52,0.00,,,0.00,meteohub,2013-02-03 12:59:00,
2013-02-03 08:02:00,19.6,4.8,30.01,South,180,1.0,2.0,52,0.00,,,0.00,meteohub,2013-02-03 13:02:00,
2013-02-03 08:03:00,19.6,4.8,30.01,South,180,1.0,2.0,52,0.00,,,0.00,meteohub,2013-02-03 13:03:00,
2013-02-03 08:05:00,19.6,4.8,30.01,West,270,2.0,2.0,52,0.00,,,0.00,meteohub,2013-02-03 13:05:00,
2013-02-03 08:07:00,19.6,4.8,30.01,WSW,248,2.0,2.0,52,0.00,,,0.00,meteohub,2013-02-03 13:07:00,
2013-02-03 08:08:00,19.6,4.8,30.01,WSW,248,2.0,2.0,52,0.00,,,0.00,meteohub,2013-02-03 13:08:00,
2013-02-03 08:09:00,19.6,4.8,30.01,WSW,248,2.0,2.0,52,0.00,,,0.00,meteohub,2013-02-03 13:09:00,
2013-02-03 08:10:00,19.6,4.8,30.01,South,180,2.0,2.0,52,0.00,,,0.00,meteohub,2013-02-03 13:10:00,
2013-02-03 08:12:00,19.6,4.8,30.01,WSW,248,2.0,2.0,52,0.00,,,0.00,meteohub,2013-02-03 13:12:00,
2013-02-03 08:14:00,19.8,5.0,30.01,WSW,248,2.0,2.0,52,0.00,,,0.00,meteohub,2013-02-03 13:14:00,
2013-02-03 08:15:00,19.8,5.0,30.01,WSW,248,1.0,2.0,52,0.00,,,0.00,meteohub,2013-02-03 13:15:00,
2013-02-03 08:16:00,19.8,5.0,30.01,WSW,248,1.0,2.0,52,0.00,,,0.00,meteohub,2013-02-03 13:16:00,
2013-02-03 08:18:00,19.8,5.0,30.01,WSW,248,2.0,2.0,52,0.00,,,0.00,meteohub,2013-02-03 13:18:00,
2013-02-03 08:20:00,19.8,5.0,30.01,South,180,1.0,2.0,52,0.00,,,0.00,meteohub,2013-02-03 13:20:00,
2013-02-03 08:21:00,19.8,5.0,30.01,South,180,1.0,2.0,52,0.00,,,0.00,meteohub,2013-02-03 13:21:00,
2013-02-03 08:24:00,19.9,5.2,30.01,WSW,248,2.0,2.0,52,0.00,,,0.00,meteohub,2013-02-03 13:24:00,
2013-02-03 08:26:00,19.9,5.2,30.01,WSW,248,3.0,3.0,52,0.00,,,0.00,meteohub,2013-02-03 13:26:00,
2013-02-03 08:28:00,20.1,5.4,30.01,WSW,248,2.0,3.0,52,0.00,,,0.00,meteohub,2013-02-03 13:28:00,
2013-02-03 08:30:00,20.1,5.4,30.01,WSW,248,2.0,3.0,52,0.00,,,0.00,meteohub,2013-02-03 13:30:00,
2013-02-03 08:31:00,20.1,5.4,30.01,WSW,248,2.0,3.0,52,0.00,,,0.00,meteohub,2013-02-03 13:31:00,
2013-02-03 08:33:00,20.1,5.4,30.01,South,180,1.0,3.0,52,0.00,,,0.00,meteohub,2013-02-03 13:33:00,
2013-02-03 08:36:00,20.3,5.5,30.01,South,180,2.0,3.0,52,0.00,,,0.00,meteohub,2013-02-03 13:36:00,
2013-02-03 08:37:00,20.3,5.5,30.01,WSW,248,2.0,3.0,52,0.00,,,0.00,meteohub,2013-02-03 13:37:00,
2013-02-03 08:38:00,20.3,5.5,30.01,WSW,248,1.0,3.0,52,0.00,,,0.00,meteohub,2013-02-03 13:38:00,
2013-02-03 08:42:00,20.7,5.9,30.01,South,180,1.0,3.0,52,0.00,,,0.00,meteohub,2013-02-03 13:42:00,
2013-02-03 08:43:00,20.7,5.9,30.01,South,180,1.0,3.0,52,0.00,,,0.00,meteohub,2013-02-03 13:43:00,
2013-02-03 08:44:00,20.7,5.9,30.01,South,180,2.0,3.0,52,0.00,,,0.00,meteohub,2013-02-03 13:44:00,
2013-02-03 08:48:00,20.8,5.9,30.00,South,180,2.0,3.0,52,0.00,,,0.00,meteohub,2013-02-03 13:48:00,
2013-02-03 08:49:00,20.8,5.9,30.01,WSW,248,2.0,3.0,52,0.00,,,0.00,meteohub,2013-02-03 13:49:00,
2013-02-03 08:53:00,21.0,6.1,30.00,South,180,2.0,2.0,52,0.00,,,0.00,meteohub,2013-02-03 13:53:00,
2013-02-03 08:54:00,21.0,6.1,30.00,South,180,3.0,3.0,52,0.00,,,0.00,meteohub,2013-02-03 13:54:00,
2013-02-03 08:55:00,21.0,6.1,30.00,SSE,158,2.0,4.0,52,0.00,,,0.00,meteohub,2013-02-03 13:55:00,
2013-02-03 08:58:00,21.2,6.3,30.00,West,270,1.0,4.0,52,0.00,,,0.00,meteohub,2013-02-03 13:58:00,
2013-02-03 08:59:00,21.2,6.3,30.00,WSW,248,2.0,4.0,52,0.00,,,0.00,meteohub,2013-02-03 13:59:00,
2013-02-03 09:00:00,21.2,6.3,30.00,WSW,248,3.0,4.0,52,0.00,,,0.00,meteohub,2013-02-03 14:00:00,
2013-02-03 09:03:00,21.2,6.3,30.00,WSW,248,2.0,4.0,52,0.00,,,0.00,meteohub,2013-02-03 14:03:00,
2013-02-03 09:05:00,21.4,6.4,30.00,South,180,2.0,4.0,52,0.00,,,0.00,meteohub,2013-02-03 14:05:00,
2013-02-03 09:06:00,21.6,6.6,30.00,WSW,248,4.0,4.0,52,0.00,,,0.00,meteohub,2013-02-03 14:06:00,
2013-02-03 09:08:00,21.6,6.6,30.01,NW,315,4.0,4.0,52,0.00,,,0.00,meteohub,2013-02-03 14:08:00,
2013-02-03 09:10:00,21.6,6.6,30.01,West,270,2.0,4.0,52,0.00,,,0.00,meteohub,2013-02-03 14:10:00,
2013-02-03 09:11:00,21.6,6.3,30.00,South,180,4.0,4.0,51,0.00,,,0.00,meteohub,2013-02-03 14:11:00,
2013-02-03 09:14:00,21.6,6.3,30.01,WSW,248,3.0,4.0,51,0.00,,,0.00,meteohub,2013-02-03 14:14:00,
2013-02-03 09:15:00,21.6,6.3,30.00,WSW,248,2.0,4.0,51,0.00,,,0.00,meteohub,2013-02-03 14:15:00,
2013-02-03 09:17:00,21.7,6.4,30.00,South,180,5.0,5.0,51,0.00,,,0.00,meteohub,2013-02-03 14:17:00,
2013-02-03 09:19:00,21.7,6.4,30.00,East,90,4.0,4.0,51,0.00,,,0.00,meteohub,2013-02-03 14:19:00,
2013-02-03 09:21:00,21.7,6.4,30.00,South,180,2.0,5.0,51,0.00,,,0.00,meteohub,2013-02-03 14:21:00,
2013-02-03 09:22:00,21.9,6.6,30.00,WSW,248,2.0,5.0,51,0.00,,,0.00,meteohub,2013-02-03 14:22:00,
2013-02-03 09:24:00,21.9,6.1,30.00,WSW,248,2.0,5.0,50,0.00,,,0.00,meteohub,2013-02-03 14:24:00,
2013-02-03 09:26:00,21.9,6.1,30.00,WSW,248,2.0,5.0,50,0.00,,,0.00,meteohub,2013-02-03 14:26:00,
2013-02-03 09:27:00,22.1,6.3,30.00,South,180,2.0,5.0,50,0.00,,,0.00,meteohub,2013-02-03 14:27:00,
2013-02-03 09:28:00,22.1,6.3,30.00,South,180,2.0,5.0,50,0.00,,,0.00,meteohub,2013-02-03 14:28:00,
2013-02-03 09:30:00,22.1,6.3,30.00,WSW,248,3.0,5.0,50,0.00,,,0.00,meteohub,2013-02-03 14:30:00,
2013-02-03 09:31:00,22.1,6.3,30.00,WSW,248,3.0,5.0,50,0.00,,,0.00,meteohub,2013-02-03 14:31:00,
2013-02-03 09:33:00,22.1,6.3,30.00,WSW,248,3.0,5.0,50,0.00,,,0.00,meteohub,2013-02-03 14:33:00,
2013-02-03 09:34:00,21.9,5.7,30.00,WSW,248,3.0,5.0,49,0.00,,,0.00,meteohub,2013-02-03 14:34:00,
2013-02-03 09:36:00,21.9,5.7,30.00,South,180,4.0,4.0,49,0.00,,,0.00,meteohub,2013-02-03 14:36:00,
2013-02-03 09:38:00,21.9,5.7,30.01,WSW,248,2.0,4.0,49,0.00,,,0.00,meteohub,2013-02-03 14:38:00,
2013-02-03 09:39:00,22.1,5.9,30.00,WSW,248,2.0,4.0,49,0.00,,,0.00,meteohub,2013-02-03 14:39:00,
2013-02-03 09:41:00,22.1,5.9,30.00,WSW,248,2.0,4.0,49,0.00,,,0.00,meteohub,2013-02-03 14:41:00,
2013-02-03 09:43:00,22.1,5.4,30.00,West,270,3.0,4.0,48,0.00,,,0.00,meteohub,2013-02-03 14:43:00,
2013-02-03 09:44:00,22.1,5.9,30.00,West,270,2.0,4.0,49,0.00,,,0.00,meteohub,2013-02-03 14:44:00,
2013-02-03 09:46:00,22.3,6.1,30.00,West,270,2.0,4.0,49,0.00,,,0.00,meteohub,2013-02-03 14:46:00,
2013-02-03 09:48:00,22.3,5.5,30.00,WSW,248,2.0,4.0,48,0.00,,,0.00,meteohub,2013-02-03 14:48:00,
2013-02-03 09:49:00,22.3,5.5,30.00,WSW,248,2.0,4.0,48,0.00,,,0.00,meteohub,2013-02-03 14:49:00,
2013-02-03 09:52:00,22.5,5.7,30.00,WSW,248,3.0,4.0,48,0.00,,,0.00,meteohub,2013-02-03 14:52:00,
2013-02-03 09:53:00,22.1,5.4,30.00,WSW,248,7.0,7.0,48,0.00,,,0.00,meteohub,2013-02-03 14:53:00,
2013-02-03 09:54:00,22.1,5.4,30.00,WSW,248,7.0,7.0,48,0.00,,,0.00,meteohub,2013-02-03 14:54:00,
2013-02-03 09:55:00,22.1,5.0,29.99,South,180,4.0,7.0,47,0.00,,,0.00,meteohub,2013-02-03 14:55:00,
2013-02-03 09:57:00,21.9,4.8,29.99,WSW,248,9.0,9.0,47,0.00,,,0.00,meteohub,2013-02-03 14:57:00,
2013-02-03 09:59:00,21.9,4.8,30.00,West,270,8.0,8.0,47,0.00,,,0.00,meteohub,2013-02-03 14:59:00,
2013-02-03 10:01:00,21.9,4.3,29.99,South,180,3.0,9.0,46,0.00,,,0.00,meteohub,2013-02-03 15:01:00,
2013-02-03 10:02:00,21.9,4.3,29.99,South,180,3.0,9.0,46,0.00,,,0.00,meteohub,2013-02-03 15:02:00,
2013-02-03 10:04:00,22.3,4.1,29.99,West,270,2.0,9.0,45,0.00,,,0.00,meteohub,2013-02-03 15:04:00,
2013-02-03 10:05:00,22.5,4.3,29.99,WSW,248,2.0,9.0,45,0.00,,,0.00,meteohub,2013-02-03 15:05:00,
2013-02-03 10:06:00,22.5,4.3,29.99,West,270,2.0,9.0,45,0.00,,,0.00,meteohub,2013-02-03 15:06:00,
2013-02-03 10:08:00,22.6,4.5,29.99,West,270,4.0,9.0,45,0.00,,,0.00,meteohub,2013-02-03 15:08:00,
2013-02-03 10:10:00,22.6,4.5,30.00,WSW,248,6.0,9.0,45,0.00,,,0.00,meteohub,2013-02-03 15:10:00,
2013-02-03 10:11:00,22.8,4.1,29.99,West,270,8.0,9.0,44,0.00,,,0.00,meteohub,2013-02-03 15:11:00,
2013-02-03 10:12:00,22.8,4.1,29.99,West,270,8.0,9.0,44,0.00,,,0.00,meteohub,2013-02-03 15:12:00,
2013-02-03 10:13:00,22.8,4.1,29.99,West,270,4.0,9.0,44,0.00,,,0.00,meteohub,2013-02-03 15:13:00,
2013-02-03 10:15:00,23.0,3.9,29.99,NW,315,2.0,8.0,43,0.00,,,0.00,meteohub,2013-02-03 15:15:00,
2013-02-03 10:17:00,23.2,3.9,29.99,SSW,203,4.0,8.0,43,0.00,,,0.00,meteohub,2013-02-03 15:17:00,
2013-02-03 10:19:00,23.4,4.1,29.99,WSW,248,5.0,8.0,43,0.00,,,0.00,meteohub,2013-02-03 15:19:00,
2013-02-03 10:20:00,23.5,3.7,29.99,West,270,3.0,8.0,42,0.00,,,0.00,meteohub,2013-02-03 15:20:00,
2013-02-03 10:23:00,23.5,3.7,29.99,West,270,7.0,8.0,42,0.00,,,0.00,meteohub,2013-02-03 15:23:00,
2013-02-03 10:24:00,23.7,3.4,29.99,WSW,248,2.0,8.0,41,0.00,,,0.00,meteohub,2013-02-03 15:24:00,
2013-02-03 10:25:00,23.7,3.4,29.99,WSW,248,2.0,8.0,41,0.00,,,0.00,meteohub,2013-02-03 15:25:00,
2013-02-03 10:28:00,23.9,3.0,29.99,West,270,4.0,8.0,40,0.00,,,0.00,meteohub,2013-02-03 15:28:00,
2013-02-03 10:30:00,23.9,3.0,29.99,West,270,7.0,7.0,40,0.00,,,0.00,meteohub,2013-02-03 15:30:00,
2013-02-03 10:33:00,23.4,0.3,29.99,West,270,5.0,7.0,36,0.00,,,0.00,meteohub,2013-02-03 15:33:00,
2013-02-03 10:35:00,23.2,-0.4,29.99,NNW,338,6.0,7.0,35,0.00,,,0.00,meteohub,2013-02-03 15:35:00,
2013-02-03 10:36:00,23.2,-0.4,29.99,West,270,5.0,8.0,35,0.00,,,0.00,meteohub,2013-02-03 15:36:00,
2013-02-03 10:38:00,23.2,-1.1,29.99,WSW,248,4.0,8.0,34,0.00,,,0.00,meteohub,2013-02-03 15:38:00,
2013-02-03 10:40:00,23.0,-1.8,30.00,South,180,8.0,8.0,33,0.00,,,0.00,meteohub,2013-02-03 15:40:00,
2013-02-03 10:42:00,23.0,-2.6,29.99,West,270,7.0,12.0,32,0.00,,,0.00,meteohub,2013-02-03 15:42:00,
2013-02-03 10:44:00,23.0,-3.1,29.99,West,270,2.0,12.0,31,0.00,,,0.00,meteohub,2013-02-03 15:44:00,
2013-02-03 10:45:00,23.2,-2.4,30.00,West,270,2.0,12.0,32,0.00,,,0.00,meteohub,2013-02-03 15:45:00,
2013-02-03 10:46:00,23.2,-2.4,30.00,West,270,2.0,12.0,32,0.00,,,0.00,meteohub,2013-02-03 15:46:00,
2013-02-03 10:47:00,23.2,-2.4,30.00,West,270,2.0,12.0,32,0.00,,,0.00,meteohub,2013-02-03 15:47:00,
2013-02-03 10:49:00,23.2,-2.9,29.99,WSW,248,3.0,12.0,31,0.00,,,0.00,meteohub,2013-02-03 15:49:00,
2013-02-03 10:51:00,23.4,-2.7,29.99,South,180,5.0,12.0,31,0.00,,,0.00,meteohub,2013-02-03 15:51:00,
2013-02-03 10:52:00,23.5,-2.7,29.99,North,0,3.0,12.0,31,0.00,,,0.00,meteohub,2013-02-03 15:52:00,
2013-02-03 10:55:00,23.7,-3.3,29.99,West,270,6.0,8.0,30,0.00,,,0.00,meteohub,2013-02-03 15:55:00,
2013-02-03 10:56:00,23.7,-3.8,29.99,NW,315,4.0,8.0,29,0.00,,,0.00,meteohub,2013-02-03 15:56:00,
2013-02-03 10:57:00,23.9,-3.8,29.99,North,0,6.0,8.0,29,0.00,,,0.00,meteohub,2013-02-03 15:57:00,
2013-02-03 11:00:00,23.7,-4.7,29.99,NW,315,3.0,6.0,28,0.00,,,0.00,meteohub,2013-02-03 16:00:00,
2013-02-03 11:02:00,23.7,-5.4,29.99,West,270,8.0,8.0,27,0.00,,,0.00,meteohub,2013-02-03 16:02:00,
2013-02-03 11:03:00,23.7,-6.2,29.99,WSW,248,9.0,9.0,26,0.00,,,0.00,meteohub,2013-02-03 16:03:00,
2013-02-03 11:04:00,23.7,-6.2,29.99,WSW,248,6.0,6.0,26,0.00,,,0.00,meteohub,2013-02-03 16:04:00,
2013-02-03 11:07:00,23.9,-6.0,29.99,WSW,248,7.0,10.0,26,0.00,,,0.00,meteohub,2013-02-03 16:07:00,
2013-02-03 11:08:00,23.9,-6.0,29.98,North,0,6.0,10.0,26,0.00,,,0.00,meteohub,2013-02-03 16:08:00,
2013-02-03 11:11:00,23.9,-7.6,29.98,South,180,6.0,10.0,24,0.00,,,0.00,meteohub,2013-02-03 16:11:00,
2013-02-03 11:12:00,23.9,-8.5,29.98,NW,315,4.0,10.0,23,0.00,,,0.00,meteohub,2013-02-03 16:12:00,
2013-02-03 11:13:00,24.1,-8.3,29.98,NW,315,4.0,10.0,23,0.00,,,0.00,meteohub,2013-02-03 16:13:00,
2013-02-03 11:14:00,24.1,-7.4,29.98,WSW,248,4.0,10.0,24,0.00,,,0.00,meteohub,2013-02-03 16:14:00,
2013-02-03 11:17:00,24.3,-8.1,29.98,WSW,248,5.0,10.0,23,0.00,,,0.00,meteohub,2013-02-03 16:17:00,
2013-02-03 11:18:00,24.4,-8.1,29.98,West,270,6.0,10.0,23,0.00,,,0.00,meteohub,2013-02-03 16:18:00,
2013-02-03 11:19:00,24.4,-9.0,29.98,NW,315,6.0,10.0,22,0.00,,,0.00,meteohub,2013-02-03 16:19:00,
2013-02-03 11:22:00,24.8,-8.7,29.98,West,270,4.0,10.0,22,0.00,,,0.00,meteohub,2013-02-03 16:22:00,
2013-02-03 11:23:00,24.8,-9.6,29.98,WSW,248,4.0,10.0,21,0.00,,,0.00,meteohub,2013-02-03 16:23:00,
2013-02-03 11:24:00,24.8,-9.6,29.98,WSW,248,3.0,10.0,21,0.00,,,0.00,meteohub,2013-02-03 16:24:00,
2013-02-03 11:25:00,25.0,-9.4,29.98,WSW,248,6.0,10.0,21,0.00,,,0.00,meteohub,2013-02-03 16:25:00,
2013-02-03 11:28:00,25.0,-10.5,29.98,West,270,4.0,8.0,20,0.00,,,0.00,meteohub,2013-02-03 16:28:00,
2013-02-03 11:29:00,25.0,-10.5,29.98,West,270,11.0,11.0,20,0.00,,,0.00,meteohub,2013-02-03 16:29:00,
2013-02-03 11:30:00,25.0,-11.6,29.98,WSW,248,4.0,8.0,19,0.00,,,0.00,meteohub,2013-02-03 16:30:00,
2013-02-03 11:33:00,25.0,-10.5,29.98,West,270,4.0,8.0,20,0.00,,,0.00,meteohub,2013-02-03 16:33:00,
2013-02-03 11:34:00,24.8,-10.7,29.98,WSW,248,8.0,8.0,20,0.00,,,0.00,meteohub,2013-02-03 16:34:00,
2013-02-03 11:35:00,24.8,-10.7,29.98,WSW,248,6.0,11.0,20,0.00,,,0.00,meteohub,2013-02-03 16:35:00,
2013-02-03 11:36:00,24.8,-10.7,29.98,WSW,248,5.0,11.0,20,0.00,,,0.00,meteohub,2013-02-03 16:36:00,
2013-02-03 11:38:00,24.6,-10.8,29.98,NE,45,6.0,11.0,20,0.00,,,0.00,meteohub,2013-02-03 16:38:00,
2013-02-03 11:39:00,24.6,-10.8,29.98,West,270,4.0,11.0,20,0.00,,,0.00,meteohub,2013-02-03 16:39:00,
2013-02-03 11:41:00,24.6,-10.8,29.97,WSW,248,5.0,11.0,20,0.00,,,0.00,meteohub,2013-02-03 16:41:00,
2013-02-03 11:42:00,24.6,-10.8,29.97,WSW,248,2.0,11.0,20,0.00,,,0.00,meteohub,2013-02-03 16:42:00,
2013-02-03 11:44:00,24.6,-9.8,29.97,South,180,4.0,11.0,21,0.00,,,0.00,meteohub,2013-02-03 16:44:00,
2013-02-03 11:45:00,24.6,-9.8,29.97,WSW,248,6.0,11.0,21,0.00,,,0.00,meteohub,2013-02-03 16:45:00,
2013-02-03 11:46:00,24.6,-9.8,29.97,SE,135,4.0,8.0,21,0.00,,,0.00,meteohub,2013-02-03 16:46:00,
2013-02-03 11:48:00,24.8,-8.7,29.96,West,270,3.0,8.0,22,0.00,,,0.00,meteohub,2013-02-03 16:48:00,
2013-02-03 11:49:00,24.8,-8.7,29.97,West,270,4.0,8.0,22,0.00,,,0.00,meteohub,2013-02-03 16:49:00,
2013-02-03 11:51:00,24.8,-8.7,29.97,NW,315,2.0,8.0,22,0.00,,,0.00,meteohub,2013-02-03 16:51:00,
2013-02-03 11:53:00,25.0,-8.5,29.97,West,270,4.0,8.0,22,0.00,,,0.00,meteohub,2013-02-03 16:53:00,
2013-02-03 11:55:00,25.0,-8.5,29.97,South,180,6.0,8.0,22,0.00,,,0.00,meteohub,2013-02-03 16:55:00,
2013-02-03 11:56:00,24.8,-8.7,29.97,WSW,248,5.0,6.0,22,0.00,,,0.00,meteohub,2013-02-03 16:56:00,
2013-02-03 11:58:00,24.6,-8.9,29.97,West,270,4.0,6.0,22,0.00,,,0.00,meteohub,2013-02-03 16:58:00,
2013-02-03 12:01:00,24.6,-8.0,29.96,West,270,4.0,6.0,23,0.00,,,0.00,meteohub,2013-02-03 17:01:00,
2013-02-03 12:02:00,24.8,-7.8,29.97,WSW,248,3.0,6.0,23,0.00,,,0.00,meteohub,2013-02-03 17:02:00,
2013-02-03 12:05:00,24.8,-6.9,29.96,West,270,4.0,6.0,24,0.00,,,0.00,meteohub,2013-02-03 17:05:00,
2013-02-03 12:06:00,24.8,-6.9,29.96,West,270,5.0,6.0,24,0.00,,,0.00,meteohub,2013-02-03 17:06:00,
2013-02-03 12:07:00,24.6,-7.1,29.96,WSW,248,7.0,7.0,24,0.00,,,0.00,meteohub,2013-02-03 17:07:00,
2013-02-03 12:08:00,24.6,-7.1,29.96,WSW,248,7.0,7.0,24,0.00,,,0.00,meteohub,2013-02-03 17:08:00,
2013-02-03 12:10:00,24.4,-7.2,29.96,NW,315,3.0,7.0,24,0.00,,,0.00,meteohub,2013-02-03 17:10:00,
2013-02-03 12:11:00,24.4,-7.2,29.97,WSW,248,2.0,7.0,24,0.00,,,0.00,meteohub,2013-02-03 17:11:00,
2013-02-03 12:13:00,24.3,-6.5,29.97,West,270,4.0,7.0,25,0.00,,,0.00,meteohub,2013-02-03 17:13:00,
2013-02-03 12:14:00,24.3,-6.5,29.96,NW,315,2.0,7.0,25,0.00,,,0.00,meteohub,2013-02-03 17:14:00,
2013-02-03 12:16:00,24.3,-5.6,29.96,NW,315,4.0,8.0,26,0.00,,,0.00,meteohub,2013-02-03 17:16:00,
2013-02-03 12:18:00,24.3,-5.6,29.96,NW,315,3.0,8.0,26,0.00,,,0.00,meteohub,2013-02-03 17:18:00,
2013-02-03 12:19:00,24.3,-4.9,29.96,NW,315,4.0,8.0,27,0.00,,,0.00,meteohub,2013-02-03 17:19:00,
2013-02-03 12:21:00,24.1,-5.8,29.96,West,270,2.0,8.0,26,0.00,,,0.00,meteohub,2013-02-03 17:21:00,
2013-02-03 12:22:00,24.1,-5.8,29.96,West,270,2.0,8.0,26,0.00,,,0.00,meteohub,2013-02-03 17:22:00,
2013-02-03 12:24:00,23.9,-5.3,29.96,WSW,248,3.0,8.0,27,0.00,,,0.00,meteohub,2013-02-03 17:24:00,
2013-02-03 12:25:00,23.9,-5.3,29.96,WSW,248,3.0,8.0,27,0.00,,,0.00,meteohub,2013-02-03 17:25:00,
2013-02-03 12:27:00,23.9,-4.5,29.96,WSW,248,2.0,8.0,28,0.00,,,0.00,meteohub,2013-02-03 17:27:00,
2013-02-03 12:30:00,23.9,-4.5,29.96,West,270,5.0,6.0,28,0.00,,,0.00,meteohub,2013-02-03 17:30:00,
2013-02-03 12:31:00,23.7,-4.7,29.96,West,270,6.0,6.0,28,0.00,,,0.00,meteohub,2013-02-03 17:31:00,
2013-02-03 12:33:00,23.5,-4.7,29.96,WSW,248,6.0,6.0,28,0.00,,,0.00,meteohub,2013-02-03 17:33:00,
2013-02-03 12:34:00,23.5,-4.0,29.96,West,270,2.0,6.0,29,0.00,,,0.00,meteohub,2013-02-03 17:34:00,
2013-02-03 12:36:00,23.5,-4.0,29.96,NW,315,2.0,6.0,29,0.00,,,0.00,meteohub,2013-02-03 17:36:00,
2013-02-03 12:38:00,23.7,-3.8,29.96,WSW,248,3.0,6.0,29,0.00,,,0.00,meteohub,2013-02-03 17:38:00,
2013-02-03 12:39:00,23.7,-3.8,29.96,WSW,248,3.0,6.0,29,0.00,,,0.00,meteohub,2013-02-03 17:39:00,
2013-02-03 12:41:00,23.7,-3.3,29.96,South,180,3.0,6.0,30,0.00,,,0.00,meteohub,2013-02-03 17:41:00,
2013-02-03 12:43:00,23.7,-3.3,29.96,WSW,248,3.0,6.0,30,0.00,,,0.00,meteohub,2013-02-03 17:43:00,
2013-02-03 12:45:00,23.7,-3.3,29.95,NW,315,2.0,6.0,30,0.00,,,0.00,meteohub,2013-02-03 17:45:00,
2013-02-03 12:46:00,23.7,-3.3,29.96,WSW,248,2.0,6.0,30,0.00,,,0.00,meteohub,2013-02-03 17:46:00,
2013-02-03 12:48:00,23.9,-3.1,29.96,WSW,248,2.0,6.0,30,0.00,,,0.00,meteohub,2013-02-03 17:48:00,
2013-02-03 12:49:00,23.9,-3.1,29.96,NW,315,5.0,6.0,30,0.00,,,0.00,meteohub,2013-02-03 17:49:00,
2013-02-03 12:50:00,23.9,-3.1,29.96,West,270,3.0,6.0,30,0.00,,,0.00,meteohub,2013-02-03 17:50:00,
2013-02-03 12:53:00,24.1,-3.6,29.96,West,270,6.0,6.0,29,0.00,,,0.00,meteohub,2013-02-03 17:53:00,
2013-02-03 12:54:00,24.1,-3.6,29.95,West,270,4.0,4.0,29,0.00,,,0.00,meteohub,2013-02-03 17:54:00,
2013-02-03 12:55:00,24.1,-3.6,29.95,West,270,3.0,6.0,29,0.00,,,0.00,meteohub,2013-02-03 17:55:00,
2013-02-03 12:59:00,24.1,-4.4,29.95,NW,315,5.0,6.0,28,0.00,,,0.00,meteohub,2013-02-03 17:59:00,
2013-02-03 13:00:00,24.1,-4.4,29.96,WSW,248,8.0,8.0,28,0.00,,,0.00,meteohub,2013-02-03 18:00:00,
2013-02-03 13:01:00,24.1,-4.4,29.96,NW,315,8.0,8.0,28,0.00,,,0.00,meteohub,2013-02-03 18:01:00,
2013-02-03 13:05:00,24.6,-3.1,29.96,West,270,7.0,8.0,29,0.00,,,0.00,meteohub,2013-02-03 18:05:00,
2013-02-03 13:06:00,24.8,-2.9,29.96,West,270,8.0,8.0,29,0.00,,,0.00,meteohub,2013-02-03 18:06:00,
2013-02-03 13:07:00,24.6,-3.8,29.95,West,270,10.0,10.0,28,0.00,,,0.00,meteohub,2013-02-03 18:07:00,
2013-02-03 13:11:00,24.4,-4.7,29.95,NW,315,8.0,10.0,27,0.00,,,0.00,meteohub,2013-02-03 18:11:00,
2013-02-03 13:12:00,24.4,-4.0,29.95,West,270,7.0,10.0,28,0.00,,,0.00,meteohub,2013-02-03 18:12:00,
2013-02-03 13:13:00,24.4,-4.0,29.95,NE,45,4.0,10.0,28,0.00,,,0.00,meteohub,2013-02-03 18:13:00,
2013-02-03 13:16:00,24.6,-3.1,29.95,West,270,6.0,10.0,29,0.00,,,0.00,meteohub,2013-02-03 18:16:00,
2013-02-03 13:17:00,24.6,-3.1,29.94,West,270,6.0,10.0,29,0.00,,,0.00,meteohub,2013-02-03 18:17:00,
2013-02-03 13:18:00,24.4,-3.3,29.94,NW,315,9.0,10.0,29,0.00,,,0.00,meteohub,2013-02-03 18:18:00,
2013-02-03 13:22:00,24.3,-2.7,29.94,West,270,2.0,10.0,30,0.00,,,0.00,meteohub,2013-02-03 18:22:00,
2013-02-03 13:23:00,24.4,-2.6,29.94,NW,315,4.0,10.0,30,0.00,,,0.00,meteohub,2013-02-03 18:23:00,
2013-02-03 13:27:00,24.4,-1.8,29.94,NW,315,3.0,9.0,31,0.00,,,0.00,meteohub,2013-02-03 18:27:00,
2013-02-03 13:28:00,24.4,-1.8,29.94,WSW,248,4.0,9.0,31,0.00,,,0.00,meteohub,2013-02-03 18:28:00,
2013-02-03 13:29:00,24.6,-1.7,29.94,West,270,8.0,9.0,31,0.00,,,0.00,meteohub,2013-02-03 18:29:00,
2013-02-03 13:32:00,24.4,-1.8,29.94,NE,45,4.0,9.0,31,0.00,,,0.00,meteohub,2013-02-03 18:32:00,
2013-02-03 13:33:00,24.4,-1.8,29.94,NE,45,4.0,9.0,31,0.00,,,0.00,meteohub,2013-02-03 18:33:00,
2013-02-03 13:34:00,24.4,-1.8,29.94,North,0,3.0,9.0,31,0.00,,,0.00,meteohub,2013-02-03 18:34:00,
2013-02-03 13:35:00,24.4,-1.8,29.94,NW,315,3.0,8.0,31,0.00,,,0.00,meteohub,2013-02-03 18:35:00,
2013-02-03 13:38:00,24.6,-1.7,29.94,West,270,3.0,8.0,31,0.00,,,0.00,meteohub,2013-02-03 18:38:00,
2013-02-03 13:41:00,24.6,-2.4,29.94,West,270,3.0,8.0,30,0.00,,,0.00,meteohub,2013-02-03 18:41:00,
2013-02-03 13:43:00,24.6,-3.1,29.94,NW,315,5.0,8.0,29,0.00,,,0.00,meteohub,2013-02-03 18:43:00,
2013-02-03 13:44:00,24.4,-3.3,29.94,West,270,5.0,8.0,29,0.00,,,0.00,meteohub,2013-02-03 18:44:00,
2013-02-03 13:46:00,24.4,-4.0,29.94,WSW,248,7.0,8.0,28,0.00,,,0.00,meteohub,2013-02-03 18:46:00,
2013-02-03 13:49:00,24.1,-4.4,29.94,NW,315,7.0,8.0,28,0.00,,,0.00,meteohub,2013-02-03 18:49:00,
2013-02-03 13:50:00,23.9,-4.5,29.94,NW,315,7.0,8.0,28,0.00,,,0.00,meteohub,2013-02-03 18:50:00,
2013-02-03 13:51:00,23.7,-4.7,29.94,North,0,5.0,8.0,28,0.00,,,0.00,meteohub,2013-02-03 18:51:00,
2013-02-03 13:55:00,23.9,-3.1,29.94,NW,315,5.0,8.0,30,0.00,,,0.00,meteohub,2013-02-03 18:55:00,
2013-02-03 13:56:00,24.1,-2.9,29.94,West,270,8.0,8.0,30,0.00,,,0.00,meteohub,2013-02-03 18:56:00,
2013-02-03 13:57:00,24.3,-2.7,29.94,South,180,2.0,8.0,30,0.00,,,0.00,meteohub,2013-02-03 18:57:00,
2013-02-03 14:01:00,24.6,-2.4,29.94,WSW,248,5.0,9.0,30,0.00,,,0.00,meteohub,2013-02-03 19:01:00,
2013-02-03 14:03:00,24.6,-3.1,29.94,SE,135,2.0,9.0,29,0.00,,,0.00,meteohub,2013-02-03 19:03:00,
2013-02-03 14:06:00,24.8,-4.5,29.94,WSW,248,8.0,9.0,27,0.00,,,0.00,meteohub,2013-02-03 19:06:00,
2013-02-03 14:08:00,24.8,-6.0,29.94,South,180,6.0,9.0,25,0.00,,,0.00,meteohub,2013-02-03 19:08:00,
2013-02-03 14:09:00,24.8,-6.0,29.94,South,180,6.0,9.0,25,0.00,,,0.00,meteohub,2013-02-03 19:09:00,
2013-02-03 14:11:00,24.8,-6.9,29.93,WSW,248,4.0,9.0,24,0.00,,,0.00,meteohub,2013-02-03 19:11:00,
2013-02-03 14:14:00,25.2,-6.5,29.93,West,270,5.0,9.0,24,0.00,,,0.00,meteohub,2013-02-03 19:14:00,
2013-02-03 14:17:00,25.5,-6.3,29.93,WSW,248,6.0,8.0,24,0.00,,,0.00,meteohub,2013-02-03 19:17:00,
2013-02-03 14:20:00,26.4,-7.2,29.93,West,270,3.0,8.0,22,0.00,,,0.00,meteohub,2013-02-03 19:20:00,
2013-02-03 14:22:00,26.6,-9.0,29.93,NW,315,6.0,8.0,20,0.00,,,0.00,meteohub,2013-02-03 19:22:00,
2013-02-03 14:23:00,26.6,-9.0,29.93,NW,315,6.0,8.0,20,0.00,,,0.00,meteohub,2013-02-03 19:23:00,
2013-02-03 14:26:00,26.1,-11.7,29.93,WSW,248,6.0,8.0,18,0.00,,,0.00,meteohub,2013-02-03 19:26:00,
2013-02-03 14:28:00,25.9,-11.7,29.93,NW,315,4.0,8.0,18,0.00,,,0.00,meteohub,2013-02-03 19:28:00,
2013-02-03 14:31:00,25.7,-11.9,29.94,WSW,248,4.0,7.0,18,0.00,,,0.00,meteohub,2013-02-03 19:31:00,
2013-02-03 14:33:00,25.5,-12.1,29.93,NW,315,7.0,7.0,18,0.00,,,0.00,meteohub,2013-02-03 19:33:00,
2013-02-03 14:34:00,25.5,-12.1,29.93,NW,315,8.0,8.0,18,0.00,,,0.00,meteohub,2013-02-03 19:34:00,
2013-02-03 14:36:00,25.0,-12.6,29.93,WSW,248,6.0,8.0,18,0.00,,,0.00,meteohub,2013-02-03 19:36:00,
2013-02-03 14:37:00,25.0,-12.6,29.93,WSW,248,6.0,8.0,18,0.00,,,0.00,meteohub,2013-02-03 19:37:00,
2013-02-03 14:39:00,24.6,-11.7,29.94,West,270,4.0,8.0,19,0.00,,,0.00,meteohub,2013-02-03 19:39:00,
2013-02-03 14:40:00,24.6,-11.7,29.94,West,270,4.0,8.0,19,0.00,,,0.00,meteohub,2013-02-03 19:40:00,
2013-02-03 14:42:00,24.6,-11.7,29.93,WSW,248,6.0,8.0,19,0.00,,,0.00,meteohub,2013-02-03 19:42:00,
2013-02-03 14:43:00,24.6,-10.8,29.93,WSW,248,3.0,8.0,20,0.00,,,0.00,meteohub,2013-02-03 19:43:00,
2013-02-03 14:45:00,24.6,-9.8,29.93,NW,315,6.0,8.0,21,0.00,,,0.00,meteohub,2013-02-03 19:45:00,
2013-02-03 14:46:00,24.6,-9.8,29.94,West,270,3.0,8.0,21,0.00,,,0.00,meteohub,2013-02-03 19:46:00,
2013-02-03 14:48:00,25.0,-9.4,29.94,West,270,4.0,8.0,21,0.00,,,0.00,meteohub,2013-02-03 19:48:00,
2013-02-03 14:50:00,25.0,-9.4,29.94,WSW,248,5.0,8.0,21,0.00,,,0.00,meteohub,2013-02-03 19:50:00,
2013-02-03 14:51:00,25.0,-9.4,29.94,NW,315,4.0,8.0,21,0.00,,,0.00,meteohub,2013-02-03 19:51:00,
2013-02-03 14:53:00,25.0,-10.5,29.94,WSW,248,8.0,8.0,20,0.00,,,0.00,meteohub,2013-02-03 19:53:00,
2013-02-03 14:54:00,24.8,-10.7,29.94,West,270,8.0,8.0,20,0.00,,,0.00,meteohub,2013-02-03 19:54:00,
2013-02-03 14:55:00,24.8,-11.6,29.94,NW,315,8.0,8.0,19,0.00,,,0.00,meteohub,2013-02-03 19:55:00,
2013-02-03 14:56:00,24.6,-11.7,29.94,WSW,248,2.0,8.0,19,0.00,,,0.00,meteohub,2013-02-03 19:56:00,
2013-02-03 14:59:00,24.8,-10.7,29.94,WSW,248,2.0,8.0,20,0.00,,,0.00,meteohub,2013-02-03 19:59:00,
2013-02-03 15:00:00,25.0,-10.5,29.94,WSW,248,5.0,8.0,20,0.00,,,0.00,meteohub,2013-02-03 20:00:00,
2013-02-03 15:02:00,24.8,-9.6,29.94,WSW,248,6.0,8.0,21,0.00,,,0.00,meteohub,2013-02-03 20:02:00,
2013-02-03 15:05:00,24.4,-9.9,29.94,NW,315,10.0,10.0,21,0.00,,,0.00,meteohub,2013-02-03 20:05:00,
2013-02-03 15:06:00,24.4,-9.9,29.94,NW,315,10.0,10.0,21,0.00,,,0.00,meteohub,2013-02-03 20:06:00,
2013-02-03 15:08:00,24.3,-10.1,29.94,South,180,5.0,9.0,21,0.00,,,0.00,meteohub,2013-02-03 20:08:00,
2013-02-03 15:10:00,24.1,-9.2,29.95,WSW,248,4.0,10.0,22,0.00,,,0.00,meteohub,2013-02-03 20:10:00,
2013-02-03 15:11:00,23.9,-9.4,29.95,NW,315,3.0,10.0,22,0.00,,,0.00,meteohub,2013-02-03 20:11:00,
2013-02-03 15:14:00,23.7,-7.8,29.95,NE,45,3.0,10.0,24,0.00,,,0.00,meteohub,2013-02-03 20:14:00,
2013-02-03 15:15:00,23.7,-7.8,29.94,West,270,5.0,10.0,24,0.00,,,0.00,meteohub,2013-02-03 20:15:00,
2013-02-03 15:16:00,23.7,-7.1,29.94,NW,315,6.0,10.0,25,0.00,,,0.00,meteohub,2013-02-03 20:16:00,
2013-02-03 15:17:00,23.5,-6.3,29.95,NW,315,5.0,10.0,26,0.00,,,0.00,meteohub,2013-02-03 20:17:00,
2013-02-03 15:20:00,23.4,-4.9,29.94,North,0,8.0,10.0,28,0.00,,,0.00,meteohub,2013-02-03 20:20:00,
2013-02-03 15:22:00,23.4,-3.5,29.95,West,270,11.0,11.0,30,0.00,,,0.00,meteohub,2013-02-03 20:22:00,
2013-02-03 15:25:00,23.2,-2.9,29.95,NW,315,4.0,13.0,31,0.00,,,0.00,meteohub,2013-02-03 20:25:00,
2013-02-03 15:27:00,23.2,-2.4,29.95,West,270,7.0,13.0,32,0.00,,,0.00,meteohub,2013-02-03 20:27:00,
2013-02-03 15:28:00,23.2,-2.4,29.95,NW,315,8.0,13.0,32,0.00,,,0.00,meteohub,2013-02-03 20:28:00,
2013-02-03 15:31:00,23.2,-1.7,29.95,NW,315,9.0,13.0,33,0.00,,,0.00,meteohub,2013-02-03 20:31:00,
2013-02-03 15:32:00,23.2,-1.7,29.95,West,270,3.0,13.0,33,0.00,,,0.00,meteohub,2013-02-03 20:32:00,
2013-02-03 15:33:00,23.2,-1.7,29.95,North,0,4.0,13.0,33,0.00,,,0.00,meteohub,2013-02-03 20:33:00,
2013-02-03 15:36:00,23.2,-1.1,29.95,NW,315,5.0,13.0,34,0.00,,,0.00,meteohub,2013-02-03 20:36:00,
2013-02-03 15:38:00,23.2,-1.1,29.95,WSW,248,5.0,13.0,34,0.00,,,0.00,meteohub,2013-02-03 20:38:00,
2013-02-03 15:42:00,22.8,-1.3,29.95,NW,315,6.0,9.0,34,0.00,,,0.00,meteohub,2013-02-03 20:42:00,
2013-02-03 15:43:00,22.6,-0.9,29.95,NW,315,4.0,9.0,35,0.00,,,0.00,meteohub,2013-02-03 20:43:00,
2013-02-03 15:44:00,22.5,-1.1,29.95,NE,45,8.0,9.0,35,0.00,,,0.00,meteohub,2013-02-03 20:44:00,
2013-02-03 15:47:00,21.9,-1.5,29.96,NW,315,10.0,10.0,35,0.00,,,0.00,meteohub,2013-02-03 20:47:00,
2013-02-03 15:49:00,21.9,-0.9,29.96,North,0,7.0,9.0,36,0.00,,,0.00,meteohub,2013-02-03 20:49:00,
2013-02-03 15:50:00,21.7,-1.1,29.96,NW,315,8.0,8.0,36,0.00,,,0.00,meteohub,2013-02-03 20:50:00,
2013-02-03 15:53:00,21.7,-0.6,29.96,West,270,7.0,8.0,37,0.00,,,0.00,meteohub,2013-02-03 20:53:00,
2013-02-03 15:54:00,21.9,-0.4,29.96,NW,315,4.0,8.0,37,0.00,,,0.00,meteohub,2013-02-03 20:54:00,
2013-02-03 15:56:00,21.9,0.1,29.96,NW,315,6.0,10.0,38,0.00,,,0.00,meteohub,2013-02-03 20:56:00,
2013-02-03 15:59:00,21.7,0.0,29.96,NW,315,7.0,10.0,38,0.00,,,0.00,meteohub,2013-02-03 20:59:00,
2013-02-03 16:00:00,21.7,0.0,29.96,NW,315,10.0,10.0,38,0.00,,,0.00,meteohub,2013-02-03 21:00:00,
2013-02-03 16:02:00,21.6,0.0,29.96,North,0,4.0,10.0,38,0.00,,,0.00,meteohub,2013-02-03 21:02:00,
2013-02-03 16:04:00,21.4,-0.2,29.96,NW,315,9.0,10.0,38,0.00,,,0.00,meteohub,2013-02-03 21:04:00,
2013-02-03 16:05:00,21.4,-0.2,29.96,NW,315,4.0,10.0,38,0.00,,,0.00,meteohub,2013-02-03 21:05:00,
2013-02-03 16:07:00,21.4,0.3,29.96,NW,315,6.0,10.0,39,0.00,,,0.00,meteohub,2013-02-03 21:07:00,
2013-02-03 16:10:00,21.0,0.0,29.96,West,270,9.0,10.0,39,0.00,,,0.00,meteohub,2013-02-03 21:10:00,
2013-02-03 16:12:00,20.8,-0.2,29.96,North,0,3.0,10.0,39,0.00,,,0.00,meteohub,2013-02-03 21:12:00,
2013-02-03 16:15:00,20.8,-0.2,29.96,NW,315,2.0,10.0,39,0.00,,,0.00,meteohub,2013-02-03 21:15:00,
2013-02-03 16:16:00,20.7,-0.4,29.96,NW,315,8.0,10.0,39,0.00,,,0.00,meteohub,2013-02-03 21:16:00,
2013-02-03 16:19:00,20.5,-0.6,29.96,NW,315,8.0,10.0,39,0.00,,,0.00,meteohub,2013-02-03 21:19:00,
2013-02-03 16:21:00,20.5,-0.6,29.96,WSW,248,4.0,9.0,39,0.00,,,0.00,meteohub,2013-02-03 21:21:00,
2013-02-03 16:25:00,20.5,0.0,29.96,West,270,3.0,11.0,40,0.00,,,0.00,meteohub,2013-02-03 21:25:00,
2013-02-03 16:26:00,20.5,0.0,29.96,West,270,3.0,11.0,40,0.00,,,0.00,meteohub,2013-02-03 21:26:00,
2013-02-03 16:30:00,20.3,-0.2,29.96,West,270,6.0,11.0,40,0.00,,,0.00,meteohub,2013-02-03 21:30:00,
2013-02-03 16:31:00,20.3,-0.2,29.96,NW,315,7.0,11.0,40,0.00,,,0.00,meteohub,2013-02-03 21:31:00,
2013-02-03 16:33:00,20.3,-0.2,29.96,West,270,5.0,11.0,40,0.00,,,0.00,meteohub,2013-02-03 21:33:00,
2013-02-03 16:36:00,20.3,0.3,29.96,West,270,3.0,11.0,41,0.00,,,0.00,meteohub,2013-02-03 21:36:00,
2013-02-03 16:37:00,20.3,0.3,29.96,West,270,7.0,11.0,41,0.00,,,0.00,meteohub,2013-02-03 21:37:00,
2013-02-03 16:39:00,20.3,0.3,29.96,North,0,4.0,11.0,41,0.00,,,0.00,meteohub,2013-02-03 21:39:00,
2013-02-03 16:41:00,20.1,0.1,29.96,NW,315,7.0,8.0,41,0.00,,,0.00,meteohub,2013-02-03 21:41:00,
2013-02-03 16:42:00,20.1,-0.4,29.96,NW,315,4.0,8.0,40,0.00,,,0.00,meteohub,2013-02-03 21:42:00,
2013-02-03 16:44:00,19.8,-0.6,29.96,NW,315,4.0,8.0,40,0.00,,,0.00,meteohub,2013-02-03 21:44:00,
2013-02-03 16:46:00,19.8,-0.6,29.97,WSW,248,4.0,7.0,40,0.00,,,0.00,meteohub,2013-02-03 21:46:00,
2013-02-03 16:47:00,19.8,-0.6,29.97,WSW,248,4.0,7.0,40,0.00,,,0.00,meteohub,2013-02-03 21:47:00,
2013-02-03 16:48:00,19.8,-0.6,29.96,WSW,248,3.0,7.0,40,0.00,,,0.00,meteohub,2013-02-03 21:48:00,
2013-02-03 16:50:00,19.6,-0.8,29.96,NW,315,5.0,7.0,40,0.00,,,0.00,meteohub,2013-02-03 21:50:00,
2013-02-03 16:51:00,19.6,-0.2,29.97,North,0,3.0,7.0,41,0.00,,,0.00,meteohub,2013-02-03 21:51:00,
2013-02-03 16:53:00,19.6,-0.2,29.97,WSW,248,2.0,7.0,41,0.00,,,0.00,meteohub,2013-02-03 21:53:00,
2013-02-03 16:54:00,19.4,-0.4,29.97,NE,45,3.0,7.0,41,0.00,,,0.00,meteohub,2013-02-03 21:54:00,
2013-02-03 16:57:00,19.4,-0.4,29.97,NW,315,4.0,7.0,41,0.00,,,0.00,meteohub,2013-02-03 21:57:00,
2013-02-03 16:58:00,19.4,-0.4,29.97,NW,315,4.0,7.0,41,0.00,,,0.00,meteohub,2013-02-03 21:58:00,
2013-02-03 17:00:00,19.4,0.0,29.97,WSW,248,5.0,7.0,42,0.00,,,0.00,meteohub,2013-02-03 22:00:00,
2013-02-03 17:02:00,19.2,0.0,29.97,NW,315,4.0,6.0,42,0.00,,,0.00,meteohub,2013-02-03 22:02:00,
2013-02-03 17:03:00,19.2,0.0,29.97,NW,315,9.0,9.0,42,0.00,,,0.00,meteohub,2013-02-03 22:03:00,
2013-02-03 17:05:00,19.0,-0.2,29.97,West,270,3.0,9.0,42,0.00,,,0.00,meteohub,2013-02-03 22:05:00,
2013-02-03 17:08:00,19.0,0.1,29.97,West,270,6.0,9.0,43,0.00,,,0.00,meteohub,2013-02-03 22:08:00,
2013-02-03 17:09:00,19.0,0.1,29.97,West,270,6.0,9.0,43,0.00,,,0.00,meteohub,2013-02-03 22:09:00,
2013-02-03 17:10:00,19.0,0.1,29.97,North,0,4.0,10.0,43,0.00,,,0.00,meteohub,2013-02-03 22:10:00,
2013-02-03 17:14:00,18.9,0.1,29.98,West,270,4.0,10.0,43,0.00,,,0.00,meteohub,2013-02-03 22:14:00,
2013-02-03 17:16:00,18.9,0.1,29.97,West,270,4.0,10.0,43,0.00,,,0.00,meteohub,2013-02-03 22:16:00,
2013-02-03 17:19:00,18.7,0.0,29.98,West,270,8.0,10.0,43,0.00,,,0.00,meteohub,2013-02-03 22:19:00,
2013-02-03 17:20:00,18.7,0.0,29.98,West,270,8.0,10.0,43,0.00,,,0.00,meteohub,2013-02-03 22:20:00,
2013-02-03 17:21:00,18.7,0.0,29.98,NW,315,4.0,10.0,43,0.00,,,0.00,meteohub,2013-02-03 22:21:00,
2013-02-03 17:25:00,18.7,0.0,29.99,NW,315,5.0,8.0,43,0.00,,,0.00,meteohub,2013-02-03 22:25:00,
2013-02-03 17:26:00,18.7,0.0,29.98,WSW,248,9.0,9.0,43,0.00,,,0.00,meteohub,2013-02-03 22:26:00,
2013-02-03 17:27:00,18.7,0.0,29.98,WSW,248,9.0,9.0,43,0.00,,,0.00,meteohub,2013-02-03 22:27:00,
2013-02-03 17:31:00,18.5,-0.2,29.98,WSW,248,14.0,14.0,43,0.00,,,0.00,meteohub,2013-02-03 22:31:00,
2013-02-03 17:32:00,18.5,-0.2,29.98,WSW,248,14.0,14.0,43,0.00,,,0.00,meteohub,2013-02-03 22:32:00,
2013-02-03 17:33:00,18.5,-0.8,29.98,West,270,4.0,10.0,42,0.00,,,0.00,meteohub,2013-02-03 22:33:00,
2013-02-03 17:36:00,18.5,-0.8,29.98,South,180,4.0,14.0,42,0.00,,,0.00,meteohub,2013-02-03 22:36:00,
2013-02-03 17:37:00,18.5,-0.8,29.98,South,180,4.0,14.0,42,0.00,,,0.00,meteohub,2013-02-03 22:37:00,
2013-02-03 17:39:00,18.5,-0.8,29.98,NW,315,4.0,14.0,42,0.00,,,0.00,meteohub,2013-02-03 22:39:00,
2013-02-03 17:41:00,18.3,-1.5,29.99,WSW,248,6.0,14.0,41,0.00,,,0.00,meteohub,2013-02-03 22:41:00,
2013-02-03 17:42:00,18.3,-1.5,29.98,WSW,248,5.0,14.0,41,0.00,,,0.00,meteohub,2013-02-03 22:42:00,
2013-02-03 17:43:00,18.3,-1.5,29.98,NW,315,10.0,14.0,41,0.00,,,0.00,meteohub,2013-02-03 22:43:00,
2013-02-03 17:44:00,18.3,-1.5,29.98,West,270,11.0,14.0,41,0.00,,,0.00,meteohub,2013-02-03 22:44:00,
2013-02-03 17:47:00,18.1,-2.2,29.99,West,270,12.0,14.0,40,0.00,,,0.00,meteohub,2013-02-03 22:47:00,
2013-02-03 17:48:00,18.0,-3.5,29.99,West,270,8.0,14.0,38,0.00,,,0.00,meteohub,2013-02-03 22:48:00,
2013-02-03 17:49:00,18.0,-4.0,29.99,West,270,4.0,14.0,37,0.00,,,0.00,meteohub,2013-02-03 22:49:00,
2013-02-03 17:52:00,18.0,-5.6,29.99,North,0,4.0,12.0,34,0.00,,,0.00,meteohub,2013-02-03 22:52:00,
2013-02-03 17:54:00,18.0,-5.6,29.99,West,270,7.0,12.0,34,0.00,,,0.00,meteohub,2013-02-03 22:54:00,
2013-02-03 17:58:00,18.0,-6.3,29.99,West,270,4.0,12.0,33,0.00,,,0.00,meteohub,2013-02-03 22:58:00,
2013-02-03 17:59:00,17.8,-7.1,29.99,West,270,8.0,12.0,32,0.00,,,0.00,meteohub,2013-02-03 22:59:00,
2013-02-03 18:00:00,17.8,-7.1,29.99,North,0,7.0,12.0,32,0.00,,,0.00,meteohub,2013-02-03 23:00:00,
2013-02-03 18:03:00,17.8,-7.8,29.99,WSW,248,11.0,12.0,31,0.00,,,0.00,meteohub,2013-02-03 23:03:00,
2013-02-03 18:04:00,17.8,-7.8,29.99,West,270,7.0,12.0,31,0.00,,,0.00,meteohub,2013-02-03 23:04:00,
2013-02-03 18:05:00,17.6,-8.5,29.99,West,270,11.0,13.0,30,0.00,,,0.00,meteohub,2013-02-03 23:05:00,
2013-02-03 18:09:00,17.6,-9.2,29.99,WSW,248,4.0,13.0,29,0.00,,,0.00,meteohub,2013-02-03 23:09:00,
2013-02-03 18:10:00,17.6,-9.2,29.99,NW,315,7.0,14.0,29,0.00,,,0.00,meteohub,2013-02-03 23:10:00,
2013-02-03 18:14:00,17.4,-9.4,30.00,WSW,248,6.0,14.0,29,0.00,,,0.00,meteohub,2013-02-03 23:14:00,
2013-02-03 18:16:00,17.4,-9.4,30.00,NW,315,9.0,14.0,29,0.00,,,0.00,meteohub,2013-02-03 23:16:00,
2013-02-03 18:19:00,17.2,-9.6,30.01,West,270,15.0,15.0,29,0.00,,,0.00,meteohub,2013-02-03 23:19:00,
2013-02-03 18:21:00,17.2,-9.6,30.00,WSW,248,5.0,14.0,29,0.00,,,0.00,meteohub,2013-02-03 23:21:00,
2013-02-03 18:26:00,17.1,-9.8,30.01,NW,315,8.0,15.0,29,0.00,,,0.00,meteohub,2013-02-03 23:26:00,
2013-02-03 18:27:00,17.1,-9.8,30.01,NW,315,9.0,15.0,29,0.00,,,0.00,meteohub,2013-02-03 23:27:00,
2013-02-03 18:29:00,17.1,-9.8,30.01,WSW,248,8.0,15.0,29,0.00,,,0.00,meteohub,2013-02-03 23:29:00,
2013-02-03 18:31:00,17.1,-9.0,30.01,North,0,6.0,15.0,30,0.00,,,0.00,meteohub,2013-02-03 23:31:00,
2013-02-03 18:33:00,17.1,-9.0,30.01,West,270,3.0,15.0,30,0.00,,,0.00,meteohub,2013-02-03 23:33:00,
2013-02-03 18:34:00,17.1,-9.0,30.01,West,270,3.0,15.0,30,0.00,,,0.00,meteohub,2013-02-03 23:34:00,
2013-02-03 18:36:00,16.9,-8.5,30.01,NW,315,9.0,15.0,31,0.00,,,0.00,meteohub,2013-02-03 23:36:00,
2013-02-03 18:37:00,16.9,-8.5,30.01,NW,315,9.0,15.0,31,0.00,,,0.00,meteohub,2013-02-03 23:37:00,
2013-02-03 18:38:00,16.9,-8.5,30.01,East,90,8.0,15.0,31,0.00,,,0.00,meteohub,2013-02-03 23:38:00,
2013-02-03 18:39:00,16.9,-8.5,30.01,NW,315,10.0,15.0,31,0.00,,,0.00,meteohub,2013-02-03 23:39:00,
2013-02-03 18:42:00,16.7,-8.7,30.02,WSW,248,10.0,10.0,31,0.00,,,0.00,meteohub,2013-02-03 23:42:00,
2013-02-03 18:43:00,16.7,-8.1,30.02,WSW,248,4.0,10.0,32,0.00,,,0.00,meteohub,2013-02-03 23:43:00,
2013-02-03 18:45:00,16.7,-8.1,30.02,NW,315,6.0,10.0,32,0.00,,,0.00,meteohub,2013-02-03 23:45:00,
2013-02-03 18:47:00,16.7,-8.1,30.02,WSW,248,5.0,10.0,32,0.00,,,0.00,meteohub,2013-02-03 23:47:00,
2013-02-03 18:49:00,16.7,-7.4,30.02,West,270,6.0,10.0,33,0.00,,,0.00,meteohub,2013-02-03 23:49:00,
2013-02-03 18:52:00,16.5,-7.6,30.02,WSW,248,3.0,10.0,33,0.00,,,0.00,meteohub,2013-02-03 23:52:00,
2013-02-03 18:53:00,16.5,-7.6,30.02,West,270,7.0,10.0,33,0.00,,,0.00,meteohub,2013-02-03 23:53:00,
2013-02-03 18:54:00,16.5,-7.6,30.02,WSW,248,6.0,10.0,33,0.00,,,0.00,meteohub,2013-02-03 23:54:00,
2013-02-03 18:58:00,16.5,-6.9,30.02,NNE,23,9.0,10.0,34,0.00,,,0.00,meteohub,2013-02-03 23:58:00,
2013-02-03 18:59:00,16.5,-6.9,30.02,WSW,248,8.0,10.0,34,0.00,,,0.00,meteohub,2013-02-03 23:59:00,
2013-02-03 19:04:00,16.3,-7.8,30.02,SE,135,4.0,11.0,33,0.00,,,0.00,meteohub,2013-02-04 00:04:00,
2013-02-03 19:05:00,16.3,-7.8,30.02,SW,225,8.0,15.0,33,0.00,,,0.00,meteohub,2013-02-04 00:05:00,
2013-02-03 19:09:00,16.3,-7.8,30.02,NW,315,6.0,15.0,33,0.00,,,0.00,meteohub,2013-02-04 00:09:00,
2013-02-03 19:10:00,16.3,-7.8,30.02,West,270,4.0,15.0,33,0.00,,,0.00,meteohub,2013-02-04 00:10:00,
2013-02-03 19:14:00,16.2,-8.0,30.03,NW,315,4.0,15.0,33,0.00,,,0.00,meteohub,2013-02-04 00:14:00,
2013-02-03 19:15:00,16.2,-8.0,30.03,NW,315,4.0,15.0,33,0.00,,,0.00,meteohub,2013-02-04 00:15:00,
2013-02-03 19:16:00,16.2,-8.0,30.03,NW,315,4.0,15.0,33,0.00,,,0.00,meteohub,2013-02-04 00:16:00,
2013-02-03 19:19:00,16.2,-8.0,30.03,WNW,293,3.0,15.0,33,0.00,,,0.00,meteohub,2013-02-04 00:19:00,
2013-02-03 19:20:00,16.2,-8.0,30.02,NE,45,4.0,10.0,33,0.00,,,0.00,meteohub,2013-02-04 00:20:00,
2013-02-03 19:21:00,16.2,-8.0,30.03,West,270,5.0,10.0,33,0.00,,,0.00,meteohub,2013-02-04 00:21:00,
2013-02-03 19:24:00,16.2,-8.0,30.03,NW,315,11.0,11.0,33,0.00,,,0.00,meteohub,2013-02-04 00:24:00,
2013-02-03 19:26:00,16.0,-8.1,30.03,North,0,4.0,11.0,33,0.00,,,0.00,meteohub,2013-02-04 00:26:00,
2013-02-03 19:29:00,16.0,-8.7,30.03,NW,315,10.0,11.0,32,0.00,,,0.00,meteohub,2013-02-04 00:29:00,
2013-02-03 19:30:00,16.0,-8.7,30.03,WSW,248,8.0,11.0,32,0.00,,,0.00,meteohub,2013-02-04 00:30:00,
2013-02-03 19:32:00,16.0,-8.7,30.03,West,270,7.0,11.0,32,0.00,,,0.00,meteohub,2013-02-04 00:32:00,
2013-02-03 19:35:00,16.0,-9.4,30.03,WNW,293,8.0,11.0,31,0.00,,,0.00,meteohub,2013-02-04 00:35:00,
2013-02-03 19:37:00,16.0,-9.4,30.04,West,270,3.0,11.0,31,0.00,,,0.00,meteohub,2013-02-04 00:37:00,
2013-02-03 19:41:00,16.0,-9.9,30.04,NW,315,6.0,11.0,30,0.00,,,0.00,meteohub,2013-02-04 00:41:00,
2013-02-03 19:43:00,16.0,-9.9,30.04,WSW,248,4.0,11.0,30,0.00,,,0.00,meteohub,2013-02-04 00:43:00,
2013-02-03 19:47:00,16.0,-9.9,30.04,NW,315,3.0,11.0,30,0.00,,,0.00,meteohub,2013-02-04 00:47:00,
2013-02-03 19:48:00,16.0,-9.9,30.04,NW,315,3.0,11.0,30,0.00,,,0.00,meteohub,2013-02-04 00:48:00,
2013-02-03 19:49:00,16.0,-9.9,30.05,NW,315,3.0,11.0,30,0.00,,,0.00,meteohub,2013-02-04 00:49:00,
2013-02-03 19:53:00,16.0,-10.7,30.04,NW,315,6.0,10.0,29,0.00,,,0.00,meteohub,2013-02-04 00:53:00,
2013-02-03 19:54:00,16.0,-10.7,30.04,NW,315,6.0,10.0,29,0.00,,,0.00,meteohub,2013-02-04 00:54:00,
2013-02-03 19:55:00,16.0,-10.7,30.04,WSW,248,8.0,12.0,29,0.00,,,0.00,meteohub,2013-02-04 00:55:00,
2013-02-03 19:58:00,16.0,-11.4,30.04,NW,315,4.0,12.0,28,0.00,,,0.00,meteohub,2013-02-04 00:58:00,
2013-02-03 19:59:00,16.0,-11.4,30.04,West,270,13.0,13.0,28,0.00,,,0.00,meteohub,2013-02-04 00:59:00,
2013-02-03 20:01:00,16.0,-11.4,30.05,West,270,13.0,13.0,28,0.00,,,0.00,meteohub,2013-02-04 01:01:00,
2013-02-03 20:02:00,16.0,-11.4,30.04,West,270,13.0,13.0,28,0.00,,,0.00,meteohub,2013-02-04 01:02:00,
2013-02-03 20:04:00,16.0,-11.4,30.04,West,270,13.0,13.0,28,0.00,,,0.00,meteohub,2013-02-04 01:04:00,
2013-02-03 20:05:00,16.0,-11.4,30.04,West,270,13.0,13.0,28,0.00,,,0.00,meteohub,2013-02-04 01:05:00,
2013-02-03 20:06:00,16.0,-11.4,30.04,West,270,13.0,13.0,28,0.00,,,0.00,meteohub,2013-02-04 01:06:00,
2013-02-03 20:08:00,16.0,-12.1,30.04,West,270,11.0,13.0,27,0.00,,,0.00,meteohub,2013-02-04 01:08:00,
2013-02-03 20:10:00,15.8,-13.0,30.04,NW,315,8.0,13.0,26,0.00,,,0.00,meteohub,2013-02-04 01:10:00,
2013-02-03 20:11:00,15.8,-13.0,30.04,SW,225,8.0,13.0,26,0.00,,,0.00,meteohub,2013-02-04 01:11:00,
2013-02-03 20:14:00,15.8,-13.0,30.05,NW,315,6.0,13.0,26,0.00,,,0.00,meteohub,2013-02-04 01:14:00,
2013-02-03 20:15:00,15.8,-13.0,30.05,NW,315,5.0,13.0,26,0.00,,,0.00,meteohub,2013-02-04 01:15:00,
2013-02-03 20:16:00,15.8,-13.0,30.05,West,270,8.0,13.0,26,0.00,,,0.00,meteohub,2013-02-04 01:16:00,
2013-02-03 20:20:00,15.8,-13.0,30.05,West,270,2.0,13.0,26,0.00,,,0.00,meteohub,2013-02-04 01:20:00,
2013-02-03 20:21:00,15.8,-13.0,30.05,West,270,2.0,13.0,26,0.00,,,0.00,meteohub,2013-02-04 01:21:00,
2013-02-03 20:26:00,15.6,-12.5,30.05,NW,315,8.0,12.0,27,0.00,,,0.00,meteohub,2013-02-04 01:26:00,
2013-02-03 20:27:00,15.6,-12.5,30.05,West,270,4.0,12.0,27,0.00,,,0.00,meteohub,2013-02-04 01:27:00,
2013-02-03 20:31:00,15.6,-11.7,30.05,NW,315,6.0,12.0,28,0.00,,,0.00,meteohub,2013-02-04 01:31:00,
2013-02-03 20:32:00,15.6,-11.0,30.06,WSW,248,3.0,12.0,29,0.00,,,0.00,meteohub,2013-02-04 01:32:00,
2013-02-03 20:33:00,15.6,-11.0,30.06,WSW,248,3.0,12.0,29,0.00,,,0.00,meteohub,2013-02-04 01:33:00,
2013-02-03 20:37:00,15.6,-11.0,30.05,West,270,9.0,10.0,29,0.00,,,0.00,meteohub,2013-02-04 01:37:00,
2013-02-03 20:38:00,15.6,-11.0,30.06,West,270,8.0,10.0,29,0.00,,,0.00,meteohub,2013-02-04 01:38:00,
2013-02-03 20:42:00,15.4,-10.5,30.05,NW,315,4.0,9.0,30,0.00,,,0.00,meteohub,2013-02-04 01:42:00,
2013-02-03 20:43:00,15.4,-10.5,30.05,North,0,11.0,11.0,30,0.00,,,0.00,meteohub,2013-02-04 01:43:00,
2013-02-03 20:44:00,15.4,-10.5,30.05,NW,315,9.0,9.0,30,0.00,,,0.00,meteohub,2013-02-04 01:44:00,
2013-02-03 20:47:00,15.4,-9.8,30.05,NE,45,4.0,11.0,31,0.00,,,0.00,meteohub,2013-02-04 01:47:00,
2013-02-03 20:48:00,15.4,-9.8,30.05,NW,315,6.0,11.0,31,0.00,,,0.00,meteohub,2013-02-04 01:48:00,
2013-02-03 20:50:00,15.3,-9.4,30.05,WSW,248,9.0,11.0,32,0.00,,,0.00,meteohub,2013-02-04 01:50:00,
2013-02-03 20:53:00,15.3,-9.4,30.06,NW,315,3.0,11.0,32,0.00,,,0.00,meteohub,2013-02-04 01:53:00,
2013-02-03 20:54:00,15.3,-9.4,30.06,NW,315,4.0,11.0,32,0.00,,,0.00,meteohub,2013-02-04 01:54:00,
2013-02-03 20:57:00,15.3,-8.7,30.06,West,270,8.0,11.0,33,0.00,,,0.00,meteohub,2013-02-04 01:57:00,
2013-02-03 20:58:00,15.3,-8.7,30.06,West,270,4.0,11.0,33,0.00,,,0.00,meteohub,2013-02-04 01:58:00,
2013-02-03 20:59:00,15.3,-8.7,30.06,NW,315,3.0,11.0,33,0.00,,,0.00,meteohub,2013-02-04 01:59:00,
2013-02-03 21:01:00,15.3,-8.7,30.06,North,0,13.0,13.0,33,0.00,,,0.00,meteohub,2013-02-04 02:01:00,
2013-02-03 21:02:00,15.3,-8.7,30.06,North,0,13.0,13.0,33,0.00,,,0.00,meteohub,2013-02-04 02:02:00,
2013-02-03 21:04:00,15.3,-8.7,30.06,North,0,13.0,13.0,33,0.00,,,0.00,meteohub,2013-02-04 02:04:00,
2013-02-03 21:06:00,15.3,-8.7,30.06,North,0,13.0,13.0,33,0.00,,,0.00,meteohub,2013-02-04 02:06:00,
2013-02-03 21:07:00,15.3,-8.7,30.06,North,0,13.0,13.0,33,0.00,,,0.00,meteohub,2013-02-04 02:07:00,
2013-02-03 21:09:00,15.1,-7.6,30.06,NW,315,3.0,13.0,35,0.00,,,0.00,meteohub,2013-02-04 02:09:00,
2013-02-03 21:12:00,14.9,-7.8,30.06,West,270,5.0,13.0,35,0.00,,,0.00,meteohub,2013-02-04 02:12:00,
2013-02-03 21:14:00,14.9,-7.8,30.06,NW,315,13.0,13.0,35,0.00,,,0.00,meteohub,2013-02-04 02:14:00,
2013-02-03 21:15:00,14.9,-7.2,30.06,West,270,10.0,13.0,36,0.00,,,0.00,meteohub,2013-02-04 02:15:00,
2013-02-03 21:16:00,14.9,-7.2,30.06,South,180,4.0,13.0,36,0.00,,,0.00,meteohub,2013-02-04 02:16:00,
2013-02-03 21:18:00,14.7,-7.4,30.06,West,270,4.0,13.0,36,0.00,,,0.00,meteohub,2013-02-04 02:18:00,
2013-02-03 21:19:00,14.7,-7.4,30.06,SE,135,4.0,13.0,36,0.00,,,0.00,meteohub,2013-02-04 02:19:00,
2013-02-03 21:20:00,14.9,-7.2,30.06,West,270,4.0,13.0,36,0.00,,,0.00,meteohub,2013-02-04 02:20:00,
2013-02-03 21:22:00,14.9,-7.2,30.06,West,270,8.0,13.0,36,0.00,,,0.00,meteohub,2013-02-04 02:22:00,
2013-02-03 21:23:00,14.9,-6.7,30.06,NW,315,4.0,13.0,37,0.00,,,0.00,meteohub,2013-02-04 02:23:00,
2013-02-03 21:25:00,14.9,-6.7,30.06,West,270,10.0,13.0,37,0.00,,,0.00,meteohub,2013-02-04 02:25:00,
2013-02-03 21:27:00,14.9,-6.7,30.06,North,0,3.0,13.0,37,0.00,,,0.00,meteohub,2013-02-04 02:27:00,
2013-02-03 21:28:00,14.9,-6.2,30.06,South,180,6.0,13.0,38,0.00,,,0.00,meteohub,2013-02-04 02:28:00,
2013-02-03 21:30:00,14.9,-6.2,30.06,WSW,248,3.0,10.0,38,0.00,,,0.00,meteohub,2013-02-04 02:30:00,
2013-02-03 21:32:00,14.9,-6.2,30.06,West,270,7.0,10.0,38,0.00,,,0.00,meteohub,2013-02-04 02:32:00,
2013-02-03 21:34:00,14.9,-6.2,30.06,South,180,4.0,10.0,38,0.00,,,0.00,meteohub,2013-02-04 02:34:00,
2013-02-03 21:35:00,14.9,-6.2,30.06,West,270,5.0,10.0,38,0.00,,,0.00,meteohub,2013-02-04 02:35:00,
2013-02-03 21:36:00,14.9,-6.2,30.06,NW,315,3.0,10.0,38,0.00,,,0.00,meteohub,2013-02-04 02:36:00,
2013-02-03 21:37:00,14.9,-5.6,30.06,North,0,3.0,10.0,39,0.00,,,0.00,meteohub,2013-02-04 02:37:00,
2013-02-03 21:39:00,14.9,-5.6,30.06,West,270,11.0,11.0,39,0.00,,,0.00,meteohub,2013-02-04 02:39:00,
2013-02-03 21:41:00,14.9,-5.6,30.06,NW,315,6.0,10.0,39,0.00,,,0.00,meteohub,2013-02-04 02:41:00,
2013-02-03 21:43:00,14.9,-5.6,30.06,North,0,4.0,10.0,39,0.00,,,0.00,meteohub,2013-02-04 02:43:00,
2013-02-03 21:44:00,14.9,-5.6,30.06,West,270,8.0,10.0,39,0.00,,,0.00,meteohub,2013-02-04 02:44:00,
2013-02-03 21:46:00,14.9,-5.6,30.06,West,270,6.0,11.0,39,0.00,,,0.00,meteohub,2013-02-04 02:46:00,
2013-02-03 21:49:00,14.9,-5.6,30.06,NW,315,3.0,11.0,39,0.00,,,0.00,meteohub,2013-02-04 02:49:00,
2013-02-03 21:52:00,14.9,-5.1,30.06,NW,315,5.0,11.0,40,0.00,,,0.00,meteohub,2013-02-04 02:52:00,
2013-02-03 21:53:00,14.9,-5.1,30.06,NW,315,5.0,11.0,40,0.00,,,0.00,meteohub,2013-02-04 02:53:00,
2013-02-03 21:54:00,14.9,-5.1,30.06,NW,315,8.0,11.0,40,0.00,,,0.00,meteohub,2013-02-04 02:54:00,
2013-02-03 21:55:00,14.9,-5.1,30.06,West,270,11.0,11.0,40,0.00,,,0.00,meteohub,2013-02-04 02:55:00,
2013-02-03 21:58:00,14.9,-5.1,30.07,NW,315,2.0,10.0,40,0.00,,,0.00,meteohub,2013-02-04 02:58:00,
2013-02-03 21:59:00,14.9,-5.1,30.07,West,270,4.0,10.0,40,0.00,,,0.00,meteohub,2013-02-04 02:59:00,
2013-02-03 22:01:00,14.9,-5.1,30.07,West,270,4.0,11.0,40,0.00,,,0.00,meteohub,2013-02-04 03:01:00,
2013-02-03 22:04:00,14.9,-4.5,30.06,West,270,8.0,11.0,41,0.00,,,0.00,meteohub,2013-02-04 03:04:00,
2013-02-03 22:05:00,14.9,-4.5,30.07,West,270,5.0,11.0,41,0.00,,,0.00,meteohub,2013-02-04 03:05:00,
2013-02-03 22:06:00,14.9,-4.5,30.07,WSW,248,2.0,11.0,41,0.00,,,0.00,meteohub,2013-02-04 03:06:00,
2013-02-03 22:10:00,14.9,-4.5,30.06,North,0,4.0,11.0,41,0.00,,,0.00,meteohub,2013-02-04 03:10:00,
2013-02-03 22:11:00,14.9,-4.5,30.07,NW,315,8.0,11.0,41,0.00,,,0.00,meteohub,2013-02-04 03:11:00,
2013-02-03 22:12:00,14.9,-4.5,30.06,WSW,248,8.0,11.0,41,0.00,,,0.00,meteohub,2013-02-04 03:12:00,
2013-02-03 22:16:00,14.9,-4.0,30.07,West,270,6.0,8.0,42,0.00,,,0.00,meteohub,2013-02-04 03:16:00,
2013-02-03 22:18:00,14.9,-4.0,30.07,WSW,248,6.0,8.0,42,0.00,,,0.00,meteohub,2013-02-04 03:18:00,
2013-02-03 22:21:00,14.9,-4.0,30.07,WSW,248,6.0,9.0,42,0.00,,,0.00,meteohub,2013-02-04 03:21:00,
2013-02-03 22:22:00,14.9,-4.0,30.07,WSW,248,6.0,9.0,42,0.00,,,0.00,meteohub,2013-02-04 03:22:00,
2013-02-03 22:24:00,14.9,-4.0,30.07,West,270,5.0,9.0,42,0.00,,,0.00,meteohub,2013-02-04 03:24:00,
2013-02-03 22:27:00,14.9,-4.0,30.07,NW,315,4.0,15.0,42,0.00,,,0.00,meteohub,2013-02-04 03:27:00,
2013-02-03 22:29:00,14.9,-4.0,30.07,West,270,4.0,15.0,42,0.00,,,0.00,meteohub,2013-02-04 03:29:00,
2013-02-03 22:32:00,15.1,-3.8,30.07,West,270,4.0,15.0,42,0.00,,,0.00,meteohub,2013-02-04 03:32:00,
2013-02-03 22:34:00,15.1,-3.8,30.07,NW,315,12.0,15.0,42,0.00,,,0.00,meteohub,2013-02-04 03:34:00,
2013-02-03 22:37:00,15.1,-3.8,30.07,NW,315,10.0,15.0,42,0.00,,,0.00,meteohub,2013-02-04 03:37:00,
2013-02-03 22:38:00,15.1,-3.8,30.07,NW,315,10.0,15.0,42,0.00,,,0.00,meteohub,2013-02-04 03:38:00,
2013-02-03 22:40:00,14.9,-4.0,30.07,NW,315,12.0,15.0,42,0.00,,,0.00,meteohub,2013-02-04 03:40:00,
2013-02-03 22:42:00,14.9,-4.0,30.07,NW,315,8.0,12.0,42,0.00,,,0.00,meteohub,2013-02-04 03:42:00,
2013-02-03 22:44:00,14.9,-4.0,30.07,WSW,248,8.0,12.0,42,0.00,,,0.00,meteohub,2013-02-04 03:44:00,
2013-02-03 22:45:00,14.9,-4.0,30.07,WSW,248,5.0,12.0,42,0.00,,,0.00,meteohub,2013-02-04 03:45:00,
2013-02-03 22:46:00,14.9,-4.0,30.07,WSW,248,5.0,12.0,42,0.00,,,0.00,meteohub,2013-02-04 03:46:00,
2013-02-03 22:49:00,14.9,-4.0,30.08,West,270,13.0,13.0,42,0.00,,,0.00,meteohub,2013-02-04 03:49:00,
2013-02-03 22:50:00,14.9,-4.0,30.08,WSW,248,7.0,13.0,42,0.00,,,0.00,meteohub,2013-02-04 03:50:00,
2013-02-03 22:51:00,14.7,-4.2,30.08,West,270,15.0,15.0,42,0.00,,,0.00,meteohub,2013-02-04 03:51:00,
2013-02-03 22:54:00,14.7,-4.2,30.08,WSW,248,5.0,13.0,42,0.00,,,0.00,meteohub,2013-02-04 03:54:00,
2013-02-03 22:56:00,14.7,-4.2,30.08,NE,45,3.0,15.0,42,0.00,,,0.00,meteohub,2013-02-04 03:56:00,
2013-02-03 22:58:00,14.7,-4.2,30.08,WSW,248,6.0,15.0,42,0.00,,,0.00,meteohub,2013-02-04 03:58:00,
2013-02-03 22:59:00,14.7,-4.2,30.09,West,270,9.0,15.0,42,0.00,,,0.00,meteohub,2013-02-04 03:59:00,
2013-02-03 23:00:00,14.7,-4.2,30.08,WSW,248,14.0,15.0,42,0.00,,,0.00,meteohub,2013-02-04 04:00:00,
2013-02-03 23:01:00,14.7,-4.2,30.08,West,270,5.0,15.0,42,0.00,,,0.00,meteohub,2013-02-04 04:01:00,
2013-02-03 23:03:00,14.7,-4.7,30.08,WSW,248,4.0,15.0,41,0.00,,,0.00,meteohub,2013-02-04 04:03:00,
2013-02-03 23:05:00,14.7,-4.7,30.09,NW,315,16.0,16.0,41,0.00,,,0.00,meteohub,2013-02-04 04:05:00,
2013-02-03 23:07:00,14.7,-4.7,30.09,NW,315,7.0,15.0,41,0.00,,,0.00,meteohub,2013-02-04 04:07:00,
2013-02-03 23:08:00,14.7,-4.7,30.09,West,270,4.0,15.0,41,0.00,,,0.00,meteohub,2013-02-04 04:08:00,
2013-02-03 23:11:00,14.7,-4.7,30.09,WSW,248,8.0,16.0,41,0.00,,,0.00,meteohub,2013-02-04 04:11:00,
2013-02-03 23:12:00,14.7,-4.7,30.09,WSW,248,5.0,16.0,41,0.00,,,0.00,meteohub,2013-02-04 04:12:00,
2013-02-03 23:13:00,14.7,-4.7,30.09,WSW,248,4.0,16.0,41,0.00,,,0.00,meteohub,2013-02-04 04:13:00,
2013-02-03 23:16:00,14.7,-4.7,30.09,WSW,248,8.0,16.0,41,0.00,,,0.00,meteohub,2013-02-04 04:16:00,
2013-02-03 23:17:00,14.7,-4.7,30.09,NW,315,7.0,16.0,41,0.00,,,0.00,meteohub,2013-02-04 04:17:00,
2013-02-03 23:18:00,14.5,-4.9,30.09,WSW,248,10.0,16.0,41,0.00,,,0.00,meteohub,2013-02-04 04:18:00,
2013-02-03 23:19:00,14.5,-4.9,30.09,North,0,9.0,16.0,41,0.00,,,0.00,meteohub,2013-02-04 04:19:00,
2013-02-03 23:21:00,14.5,-4.9,30.09,West,270,8.0,16.0,41,0.00,,,0.00,meteohub,2013-02-04 04:21:00,
2013-02-03 23:23:00,14.5,-5.4,30.09,North,0,13.0,16.0,40,0.00,,,0.00,meteohub,2013-02-04 04:23:00,
2013-02-03 23:24:00,14.5,-5.4,30.09,North,0,5.0,16.0,40,0.00,,,0.00,meteohub,2013-02-04 04:24:00,
2013-02-03 23:25:00,14.5,-5.4,30.09,NW,315,6.0,10.0,40,0.00,,,0.00,meteohub,2013-02-04 04:25:00,
2013-02-03 23:27:00,14.5,-5.4,30.09,WSW,248,7.0,10.0,40,0.00,,,0.00,meteohub,2013-02-04 04:27:00,
2013-02-03 23:29:00,14.5,-5.4,30.09,WSW,248,9.0,10.0,40,0.00,,,0.00,meteohub,2013-02-04 04:29:00,
2013-02-03 23:31:00,14.4,-5.6,30.09,WSW,248,4.0,13.0,40,0.00,,,0.00,meteohub,2013-02-04 04:31:00,
2013-02-03 23:32:00,14.4,-5.6,30.09,WSW,248,4.0,13.0,40,0.00,,,0.00,meteohub,2013-02-04 04:32:00,
2013-02-03 23:35:00,14.4,-5.6,30.09,North,0,4.0,13.0,40,0.00,,,0.00,meteohub,2013-02-04 04:35:00,
2013-02-03 23:36:00,14.4,-5.6,30.09,WSW,248,6.0,13.0,40,0.00,,,0.00,meteohub,2013-02-04 04:36:00,
2013-02-03 23:37:00,14.4,-5.6,30.09,NW,315,11.0,13.0,40,0.00,,,0.00,meteohub,2013-02-04 04:37:00,
2013-02-03 23:41:00,14.4,-5.6,30.09,WSW,248,4.0,11.0,40,0.00,,,0.00,meteohub,2013-02-04 04:41:00,
2013-02-03 23:42:00,14.4,-5.6,30.09,West,270,18.0,18.0,40,0.00,,,0.00,meteohub,2013-02-04 04:42:00,
2013-02-03 23:46:00,14.4,-5.6,30.09,NW,315,15.0,18.0,40,0.00,,,0.00,meteohub,2013-02-04 04:46:00,
2013-02-03 23:47:00,14.4,-5.6,30.09,WNW,293,8.0,18.0,40,0.00,,,0.00,meteohub,2013-02-04 04:47:00,
2013-02-03 23:48:00,14.4,-5.6,30.09,West,270,8.0,18.0,40,0.00,,,0.00,meteohub,2013-02-04 04:48:00,
2013-02-03 23:51:00,14.4,-5.6,30.09,West,270,5.0,18.0,40,0.00,,,0.00,meteohub,2013-02-04 04:51:00,
2013-02-03 23:53:00,14.4,-5.6,30.09,West,270,4.0,18.0,40,0.00,,,0.00,meteohub,2013-02-04 04:53:00,
2013-02-03 23:58:00,14.2,-5.8,30.09,NW,315,10.0,18.0,40,0.00,,,0.00,meteohub,2013-02-04 04:58:00,
2013-02-03 23:59:00,14.2,-5.8,30.09,North,0,10.0,18.0,40,0.00,,,0.00,meteohub,2013-02-04 04:59:00,